[{"header": {"dx": 0.06612293990616946, "dy": 0.0552356325346848, "nx": 98, "ny": 59, "la1": 35.046912555036876, "la2": 31.78801023549047, "lo1": -121.43107172385933, "lo2": -114.95102361305473, "refTime": "2026040701", "parameterCategory": 1, "parameterNumber": 2}, "data": [8.53, 8.53, 8.53, 8.53, 8.53, 8.82, 8.22, 8.22, 8.19, 7.86, 8.08, 7.9, 8.43, 7.89, 7.42, 6.94, 6.64, 6.26, 6.26, 6.26, 6.26, 6.71, 7.15, 8.01, 8.36, 9.24, 7.35, 2.76, -0.88, -0.88, -0.88, 0.0, 0.0, 0.81, 1.7, 2.6, 3.47, 4.01, 4.29, 5.43, 6.08, 6.79, 7.64, 8.37, 9.3, 10.9, 12.51, 13.1, 12.86, 11.75, 10.15, 9.49, 9.33, 9.97, 10.16, 10.6, 11.15, 11.15, 11.15, 11.62, 11.62, 11.62, 11.62, 11.6, 11.59, 11.51, 11.51, 11.06, 11.06, 10.6, 9.72, 9.35, 8.01, 7.15, 6.71, 6.26, 6.26, 5.81, 6.26, 5.81, 5.36, 5.36, 5.36, 4.92, 4.82, 4.41, 4.47, 4.92, 5.36, 5.81, 5.75, 5.75, 6.2, 5.75, 5.81, 5.36, 4.92, 4.92, 8.24, 8.24, 8.24, 8.24, 8.53, 8.53, 8.22, 7.9, 7.59, 7.27, 7.23, 8.03, 8.05, 8.0, 8.22, 7.63, 6.45, 6.58, 6.14, 5.09, 5.64, 5.64, 6.14, 7.06, 7.21, 8.3, 7.42, 2.6, -0.88, -1.7, -1.7, -0.88, 0.0, 0.0, 1.7, 2.6, 3.47, 3.9, 4.16, 4.95, 6.01, 6.87, 7.81, 8.6, 9.9, 11.2, 12.26, 12.27, 11.26, 10.15, 8.95, 9.24, 9.33, 9.4, 10.05, 11.06, 11.06, 11.15, 11.6, 11.6, 11.62, 11.62, 11.62, 11.62, 11.18, 11.15, 11.15, 11.15, 10.7, 10.7, 10.25, 9.39, 8.49, 7.6, 7.15, 6.71, 6.26, 5.81, 6.26, 5.81, 5.36, 5.36, 5.36, 4.92, 4.82, 4.41, 4.47, 4.92, 5.36, 5.81, 5.75, 5.75, 6.2, 5.75, 5.81, 5.36, 4.92, 4.92, 8.24, 8.24, 8.24, 8.24, 7.93, 8.22, 8.22, 7.9, 7.59, 6.97, 6.95, 6.32, 7.41, 7.81, 7.6, 7.35, 7.21, 6.7, 6.16, 6.23, 5.2, 5.6, 5.2, 5.6, 6.13, 6.44, 6.11, 2.47, -0.88, -1.6, -1.6, -0.82, -0.82, 0.0, 0.88, 2.49, 3.33, 4.16, 4.26, 4.71, 5.86, 7.22, 8.53, 9.48, 10.51, 10.86, 11.28, 10.28, 9.6, 8.55, 8.3, 8.82, 9.24, 9.75, 9.89, 10.89, 11.06, 11.51, 11.52, 11.6, 11.6, 11.62, 11.62, 11.18, 11.18, 11.18, 11.18, 11.18, 10.73, 10.73, 10.28, 9.83, 8.94, 8.49, 7.6, 7.15, 6.71, 6.26, 5.81, 5.81, 5.36, 5.31, 5.29, 4.85, 4.24, 3.74, 3.74, 4.38, 4.85, 5.59, 5.59, 5.75, 5.75, 5.75, 5.75, 5.36, 5.36, 5.31, 8.24, 8.24, 8.24, 7.93, 8.22, 8.22, 8.22, 7.6, 7.3, 6.97, 6.35, 6.34, 7.35, 7.06, 7.44, 7.44, 7.42, 7.6, 6.8, 5.82, 5.75, 6.23, 6.23, 5.43, 5.21, 5.37, 4.42, 0.78, -0.82, -1.72, -1.63, -0.89, -0.89, 0.0, 1.18, 2.26, 3.6, 4.71, 4.83, 5.52, 6.97, 8.3, 8.76, 9.56, 9.62, 9.66, 9.65, 8.95, 8.82, 8.63, 8.19, 9.06, 9.06, 9.54, 9.54, 10.02, 11.06, 11.51, 11.52, 11.52, 11.6, 11.6, 11.15, 11.18, 11.18, 11.18, 11.18, 10.73, 10.73, 10.73, 10.73, 9.83, 9.36, 8.46, 8.01, 8.01, 7.11, 7.1, 6.21, 5.75, 5.77, 5.75, 5.29, 4.66, 4.57, 4.0, 3.22, 3.58, 4.22, 4.8, 5.51, 5.51, 5.59, 5.16, 5.31, 5.75, 5.75, 5.59, 8.24, 8.24, 7.93, 8.22, 8.22, 8.22, 7.9, 7.6, 7.3, 6.69, 6.35, 5.72, 6.95, 7.06, 7.06, 7.41, 7.32, 7.44, 6.79, 6.11, 5.37, 5.06, 5.36, 6.13, 5.82, 5.06, 2.4, 0.0, -1.18, -0.83, -0.79, -0.84, -0.8, 0.0, 1.26, 2.46, 2.58, 4.6, 5.0, 5.51, 6.33, 7.36, 7.9, 7.97, 8.67, 8.63, 8.55, 8.82, 9.06, 9.24, 9.24, 9.24, 9.26, 9.26, 9.7, 10.16, 10.6, 11.15, 11.59, 11.52, 11.59, 11.15, 11.15, 11.18, 11.18, 11.18, 10.73, 10.73, 10.73, 10.73, 10.73, 10.25, 9.36, 9.26, 8.8, 7.76, 7.42, 6.98, 6.51, 6.07, 5.64, 5.59, 5.51, 5.09, 4.57, 4.22, 3.58, 2.68, 3.48, 4.19, 4.8, 5.2, 5.2, 4.8, 5.51, 5.59, 5.59, 5.34, 7.93, 7.93, 7.93, 8.22, 8.22, 8.22, 7.9, 7.6, 6.98, 6.69, 6.0, 5.72, 6.53, 7.06, 7.06, 7.41, 7.02, 7.4, 7.35, 6.53, 4.96, 3.27, 2.4, 2.49, 4.29, 4.75, 1.32, 0.0, -1.25, 0.0, 0.0, 0.0, 0.0, 0.77, 0.77, 1.47, 2.35, 4.2, 4.92, 4.8, 4.92, 5.72, 6.64, 8.06, 8.43, 8.4, 8.82, 8.82, 9.06, 9.11, 9.26, 9.26, 9.7, 9.8, 10.25, 10.7, 10.7, 10.7, 11.59, 11.6, 11.15, 10.7, 10.73, 10.73, 10.73, 11.18, 10.73, 10.73, 10.73, 11.18, 10.73, 10.7, 10.25, 9.7, 8.63, 8.14, 7.21, 6.7, 6.4, 6.16, 5.75, 5.75, 5.2, 4.8, 4.6, 4.6, 3.48, 2.68, 2.95, 3.07, 4.19, 4.84, 4.84, 4.84, 5.2, 5.2, 5.2, 5.75, 7.93, 7.93, 7.93, 8.22, 8.22, 8.22, 7.6, 7.6, 6.98, 6.35, 5.72, 5.34, 6.53, 7.41, 8.37, 7.41, 7.35, 8.02, 7.18, 6.79, 6.88, 5.64, 3.27, 0.89, 1.14, 2.33, 0.0, -1.14, -1.25, -0.89, 0.0, 0.0, 0.8, 1.58, 1.52, 1.52, 2.35, 3.7, 3.7, 3.21, 3.45, 4.44, 4.96, 6.01, 6.7, 7.35, 7.89, 8.63, 9.06, 9.6, 9.6, 9.24, 9.7, 9.7, 10.16, 10.6, 10.7, 10.7, 11.15, 11.15, 10.7, 10.28, 10.28, 10.73, 10.73, 10.73, 10.73, 10.73, 11.18, 11.18, 11.15, 10.7, 10.26, 10.16, 9.26, 8.8, 7.63, 6.8, 6.44, 6.44, 5.82, 5.82, 5.43, 4.84, 4.54, 4.19, 3.84, 3.16, 2.68, 2.76, 3.72, 4.11, 4.46, 4.84, 5.21, 5.21, 5.21, 4.84, 7.93, 7.93, 7.93, 8.22, 8.22, 8.22, 7.6, 7.6, 6.98, 6.35, 5.72, 4.66, 6.04, 7.27, 8.15, 7.68, 8.3, 8.65, 7.59, 7.27, 8.03, 8.88, 9.03, 7.41, 4.83, 2.26, 0.0, -1.18, -1.25, -1.14, 0.0, 0.0, 1.16, 2.28, 2.23, 1.44, 2.31, 2.51, 2.66, 2.4, 1.32, 2.4, 4.09, 4.24, 4.92, 5.81, 6.71, 8.05, 8.45, 9.32, 8.45, 8.9, 9.8, 9.8, 10.25, 10.7, 10.7, 10.7, 11.15, 11.15, 10.73, 10.28, 10.28, 10.28, 10.28, 10.73, 11.18, 10.73, 11.18, 11.18, 11.18, 11.18, 11.18, 10.73, 9.83, 8.91, 8.36, 7.71, 6.94, 6.18, 5.43, 5.46, 5.09, 5.43, 4.84, 4.46, 3.84, 3.48, 2.95, 2.76, 2.88, 3.72, 4.11, 4.81, 4.81, 4.81, 4.81, 5.21, 7.93, 7.93, 7.93, 7.93, 8.22, 8.22, 7.61, 7.32, 6.98, 6.34, 5.69, 4.8, 5.86, 6.08, 6.57, 6.98, 7.36, 7.82, 7.18, 6.53, 6.95, 9.2, 10.85, 11.11, 9.9, 8.15, 3.79, 0.0, 0.0, 0.0, 0.0, 0.0, 1.32, 2.4, 1.55, 1.65, 1.18, 0.0, 0.0, 0.0, 1.34, 1.4, 2.48, 3.79, 5.01, 5.6, 6.64, 7.5, 7.85, 8.45, 9.39, 8.49, 9.39, 9.83, 10.28, 10.28, 10.73, 10.73, 11.15, 10.73, 10.73, 10.28, 10.28, 10.28, 10.25, 10.45, 10.89, 10.45, 10.45, 10.93, 11.51, 11.53, 11.6, 11.15, 10.73, 10.28, 9.83, 9.35, 8.33, 6.94, 5.82, 5.09, 5.09, 5.09, 4.46, 4.12, 3.84, 3.48, 3.16, 3.16, 3.07, 2.98, 3.72, 4.81, 5.15, 5.15, 4.81, 4.81, 7.93, 7.93, 7.93, 7.93, 7.93, 7.93, 7.93, 7.61, 7.32, 6.71, 6.31, 6.53, 6.96, 5.86, 5.93, 5.93, 6.88, 5.86, 5.36, 4.65, 4.48, 5.86, 8.24, 9.42, 9.08, 8.58, 6.8, 3.82, 3.13, 2.73, 0.0, 0.0, 1.34, 2.68, 2.84, 2.4, 0.0, -0.85, -0.0, 4.09, 3.63, 4.01, 4.74, 5.21, 5.75, 6.02, 6.51, 6.94, 7.85, 8.33, 8.36, 8.8, 9.36, 9.36, 9.83, 10.28, 10.28, 10.73, 10.7, 10.7, 10.25, 9.81, 9.83, 7.89, 7.44, 8.42, 9.6, 9.34, 9.6, 10.45, 10.62, 11.08, 11.15, 11.15, 11.18, 10.73, 10.73, 10.25, 9.36, 8.82, 7.28, 5.69, 4.36, 4.74, 4.46, 3.84, 3.16, 3.22, 3.2, 3.32, 3.74, 3.83, 4.19, 4.84, 5.43, 5.82, 5.46, 5.15, 7.93, 7.93, 7.93, 7.93, 7.93, 7.93, 7.93, 7.61, 7.61, 7.33, 6.96, 7.32, 8.51, 8.23, 8.05, 6.43, 6.65, 4.72, 4.54, 4.02, 4.66, 5.06, 5.79, 6.73, 7.44, 5.98, 4.43, 1.9, 1.9, 3.58, 2.24, -0.0, -0.0, -0.0, 2.4, 3.13, 3.2, 2.73, 3.48, 5.82, 6.18, 5.82, 6.21, 7.21, 6.58, 5.75, 6.65, 6.94, 6.94, 7.42, 8.0, 8.45, 8.49, 8.49, 8.9, 9.26, 9.7, 10.02, 10.02, 9.54, 9.54, 8.46, 6.7, 5.1, 5.9, 7.18, 8.03, 8.05, 8.3, 8.8, 9.8, 10.28, 10.28, 10.73, 10.73, 10.7, 10.7, 10.25, 9.7, 9.26, 8.38, 7.76, 5.69, 3.64, 3.43, 2.41, 2.23, 2.12, 2.68, 3.13, 4.02, 4.85, 5.29, 5.59, 6.28, 6.28, 6.28, 5.82, 7.93, 7.93, 7.93, 7.93, 7.93, 7.93, 7.93, 8.24, 7.95, 7.61, 7.6, 8.23, 8.59, 9.82, 10.36, 9.66, 7.23, 5.71, 5.72, 6.35, 6.97, 6.97, 6.06, 7.41, 6.4, 6.52, 4.8, 0.32, -0.0, 1.34, 1.9, 0.99, -0.0, 0.99, 2.21, 2.53, 3.58, 4.11, 4.43, 5.82, 6.44, 6.4, 6.4, 7.06, 6.71, 5.29, 5.64, 5.2, 5.81, 6.58, 6.26, 7.15, 7.11, 7.42, 7.63, 8.3, 8.55, 8.95, 8.63, 8.4, 6.51, 4.19, 3.27, 4.07, 4.6, 4.92, 5.64, 6.73, 7.35, 8.45, 8.94, 9.36, 9.72, 9.7, 9.7, 10.14, 9.54, 9.54, 9.58, 8.97, 8.63, 8.63, 6.8, 3.47, 1.66, 0.85, 0.95, 1.79, 2.24, 3.13, 4.02, 4.92, 5.31, 6.21, 6.65, 6.98, 6.98, 6.98, 7.61, 7.93, 7.93, 7.93, 7.93, 8.24, 8.24, 8.24, 7.95, 8.24, 8.24, 8.23, 8.87, 10.13, 11.92, 12.27, 10.83, 9.2, 8.28, 8.8, 9.8, 10.97, 11.13, 10.6, 9.82, 9.39, 8.48, 5.72, 2.17, -0.0, 1.26, 1.98, 1.98, 1.98, 2.84, 2.95, 3.35, 4.43, 4.43, 5.21, 5.82, 6.16, 6.28, 6.2, 5.36, 4.02, 3.72, 4.46, 4.8, 5.7, 5.36, 6.07, 6.28, 5.59, 5.64, 5.81, 6.58, 7.2, 6.44, 3.35, -0.0, 0.84, 2.47, 2.39, 2.49, 3.11, 4.6, 6.01, 7.21, 8.05, 8.01, 8.14, 8.3, 8.55, 8.95, 8.95, 8.55, 8.55, 8.25, 8.25, 8.14, 8.82, 7.2, 4.19, 0.98, 0.0, 0.8, 1.26, 2.12, 3.04, 3.74, 4.66, 5.31, 6.21, 6.65, 7.11, 7.11, 7.15, 7.61, 7.61, 7.93, 7.93, 8.24, 8.24, 8.24, 7.95, 8.24, 8.24, 8.58, 8.87, 9.5, 10.13, 11.63, 12.45, 12.27, 11.99, 11.41, 11.12, 11.87, 12.94, 13.57, 14.2, 14.29, 14.3, 13.85, 12.02, 8.03, 3.13, 1.79, 3.39, 4.66, 3.6, 3.48, 3.35, 3.35, 4.43, 5.21, 5.75, 6.02, 6.2, 6.26, 6.71, 5.81, 4.66, 1.66, 2.73, 4.09, 5.2, 5.81, 6.14, 4.92, 3.2, 1.8, 2.84, 4.24, 5.6, 3.45, -2.4, -2.54, -0.0, 2.39, 2.28, 2.44, 2.54, 3.33, 4.81, 7.21, 6.65, 7.15, 7.42, 7.42, 7.41, 7.41, 7.41, 7.06, 7.44, 7.44, 7.44, 7.44, 8.05, 6.9, 4.46, 0.87, 0.0, 0.0, 0.85, 1.49, 2.53, 3.22, 3.83, 4.93, 5.59, 6.22, 7.11, 6.71, 7.15, 7.61, 7.61, 7.93, 7.93, 8.24, 8.24, 8.24, 8.56, 8.56, 8.87, 8.58, 9.19, 9.82, 10.43, 11.36, 11.92, 12.65, 13.09, 13.19, 13.24, 12.91, 13.69, 14.34, 14.57, 15.1, 15.2, 15.2, 14.7, 12.91, 8.92, 4.92, 3.58, 5.81, 5.64, 5.2, 3.76, 5.06, 4.74, 6.13, 6.2, 6.26, 7.6, 7.15, 7.15, 6.26, 3.79, 1.23, 2.6, 4.46, 4.24, 5.36, 5.81, 4.09, 1.55, 1.55, 3.16, 4.47, 5.34, 4.11, -0.0, -0.0, -0.0, 2.54, 3.68, 3.68, 3.76, 4.11, 5.2, 5.6, 6.58, 7.15, 7.89, 7.42, 6.32, 5.49, 5.76, 5.89, 5.59, 5.69, 5.69, 5.69, 6.79, 6.08, 4.46, 2.54, 0.85, 0.0, 0.0, 0.7, 2.0, 3.16, 3.84, 4.09, 4.93, 6.02, 6.26, 6.26, 6.26, 7.61, 7.61, 7.93, 7.93, 8.24, 8.24, 8.56, 8.56, 8.56, 8.87, 8.87, 9.5, 10.12, 10.43, 11.33, 11.58, 12.45, 12.93, 13.62, 14.22, 14.23, 14.21, 14.78, 15.02, 15.15, 15.2, 15.64, 15.6, 15.15, 13.36, 10.28, 7.58, 5.78, 7.15, 6.58, 4.84, 5.06, 5.77, 7.21, 7.15, 6.21, 6.65, 7.5, 7.15, 6.14, 2.6, -0.0, 1.41, 2.98, 4.46, 5.64, 4.8, 4.65, 4.65, 4.8, 5.2, 5.81, 7.21, 8.05, 7.07, 4.2, 3.52, 4.75, 5.59, 5.6, 6.07, 5.09, 5.2, 5.2, 6.71, 7.11, 8.4, 7.81, 5.89, 4.12, 3.33, 4.11, 4.54, 5.2, 5.2, 5.6, 5.82, 5.15, 3.48, 2.97, 2.24, 0.99, 0.0, 0.0, 1.66, 2.53, 3.16, 4.09, 4.93, 5.64, 5.32, 5.36, 5.36, 7.61, 7.61, 7.93, 8.24, 8.24, 7.95, 8.56, 8.56, 8.87, 8.87, 9.19, 9.5, 9.8, 10.4, 10.99, 11.28, 11.87, 12.37, 13.36, 13.99, 14.53, 15.07, 14.81, 15.1, 15.2, 15.65, 16.09, 16.53, 16.08, 15.19, 13.41, 11.11, 7.98, 8.94, 6.26, 5.86, 5.82, 6.13, 6.14, 6.71, 6.58, 5.31, 6.71, 5.36, 5.2, 2.6, 1.23, 2.6, 4.43, 5.01, 5.75, 6.13, 6.13, 6.52, 7.21, 7.5, 8.05, 8.94, 9.21, 8.94, 7.59, 6.64, 6.28, 7.2, 7.94, 6.65, 6.71, 5.36, 5.36, 6.23, 7.44, 6.68, 4.95, 2.4, 0.99, 2.97, 4.8, 6.7, 7.63, 8.33, 8.01, 8.05, 6.51, 3.84, 1.98, 1.9, 1.58, 0.0, 0.88, 0.88, 1.49, 2.07, 3.16, 4.4, 5.09, 4.73, 4.87, 4.87, 7.61, 7.61, 7.61, 8.24, 7.95, 7.95, 8.56, 8.56, 8.87, 8.87, 9.48, 9.19, 9.8, 10.4, 10.69, 11.23, 11.8, 12.37, 12.7, 13.31, 14.23, 14.95, 15.11, 14.65, 15.2, 16.09, 16.53, 16.53, 16.08, 16.05, 15.1, 12.02, 8.47, 6.23, 5.36, 6.71, 6.26, 7.06, 6.61, 6.26, 5.36, 4.92, 4.47, 4.24, 4.11, 4.02, 3.45, 4.02, 5.36, 6.13, 6.52, 6.52, 6.8, 7.2, 7.63, 7.74, 8.17, 8.63, 8.54, 7.81, 8.37, 7.64, 8.22, 8.17, 8.41, 7.15, 7.15, 6.58, 6.13, 6.63, 7.07, 5.58, 4.82, 4.57, 5.82, 7.06, 9.03, 10.15, 10.95, 10.75, 10.45, 10.25, 8.49, 1.49, 1.6, 1.98, 0.87, 0.0, 0.0, 0.0, 0.79, 1.66, 2.3, 3.48, 4.22, 4.57, 4.66, 4.66, 7.61, 7.61, 7.61, 7.95, 7.95, 7.95, 8.56, 8.56, 8.87, 9.17, 9.48, 9.48, 10.09, 10.09, 10.09, 11.87, 11.23, 10.88, 10.96, 12.33, 14.72, 15.93, 14.53, 14.42, 13.92, 15.74, 12.51, 15.13, 15.13, 13.1, 11.4, 7.13, 4.02, 2.63, 3.39, 4.11, 5.08, 6.8, 8.3, 8.41, 7.15, 7.1, 7.06, 7.21, 5.93, 5.93, 5.93, 6.52, 6.13, 6.13, 6.52, 6.8, 7.2, 7.63, 7.2, 7.81, 8.22, 8.15, 8.0, 8.0, 8.15, 8.22, 8.6, 8.01, 8.05, 7.6, 7.55, 7.42, 8.14, 9.54, 9.39, 10.16, 11.87, 12.7, 12.7, 12.3, 11.84, 12.04, 12.04, 11.6, 9.83, 8.9, 5.75, 1.55, 0.88, 0.98, 0.0, -0.79, 0.0, 0.0, 0.88, 1.7, 2.53, 2.86, 3.47, 3.95, 4.02, 4.02, 7.61, 7.33, 7.33, 7.95, 7.95, 7.95, 8.56, 8.56, 8.87, 8.87, 9.17, 9.48, 9.77, 10.09, 10.69, 11.23, 10.3, 9.42, 9.96, 11.28, 14.95, 15.07, 14.03, 13.51, 12.89, 13.49, 12.86, 10.5, 10.71, 9.43, 6.61, 3.13, 1.79, 1.34, 1.79, 2.68, 4.17, 6.28, 7.58, 8.33, 8.49, 8.87, 9.57, 9.43, 8.0, 9.21, 7.6, 7.2, 7.21, 6.64, 6.64, 7.21, 7.21, 6.8, 6.4, 6.44, 8.0, 6.7, 7.44, 9.21, 8.6, 8.41, 8.49, 8.94, 7.6, 7.55, 7.55, 7.42, 8.45, 9.83, 11.6, 13.96, 16.33, 17.0, 16.82, 15.2, 13.84, 12.74, 11.84, 11.06, 10.16, 9.26, 6.7, 1.83, 0.0, 0.0, 0.0, -0.73, -0.73, 0.0, 0.88, 0.98, 0.95, 0.8, 1.49, 2.53, 3.22, 3.22, 7.33, 7.33, 7.33, 7.95, 7.95, 7.95, 8.56, 8.56, 8.56, 8.87, 9.17, 9.48, 9.77, 10.09, 10.69, 10.94, 10.3, 9.42, 8.85, 11.14, 13.49, 12.93, 12.09, 12.37, 12.93, 13.09, 12.11, 10.91, 9.91, 8.87, 7.15, 5.34, 3.99, 3.98, 3.58, 3.58, 3.87, 5.09, 6.79, 7.87, 8.94, 9.37, 10.14, 9.86, 8.72, 9.63, 8.6, 8.17, 7.63, 7.21, 7.06, 7.06, 6.79, 6.13, 6.28, 5.77, 6.73, 6.68, 8.54, 8.17, 8.41, 8.49, 8.49, 8.49, 7.55, 7.55, 6.98, 7.11, 7.6, 8.94, 10.6, 12.58, 15.61, 16.82, 16.54, 15.01, 12.66, 12.23, 10.87, 10.55, 10.43, 9.75, 6.4, 1.41, 0.0, 0.0, 0.0, 0.0, 0.0, 0.0, 0.0, 0.89, -0.99, -0.0, 0.66, 1.66, 2.3, 2.3, 7.33, 7.33, 7.33, 7.61, 7.95, 7.95, 8.56, 8.56, 8.56, 8.56, 9.17, 9.17, 9.77, 9.77, 10.36, 10.65, 10.3, 10.3, 11.28, 12.51, 13.01, 11.62, 9.86, 10.41, 12.16, 13.31, 13.51, 13.1, 12.4, 12.06, 11.18, 9.83, 8.49, 7.58, 7.13, 6.71, 6.26, 6.23, 6.61, 7.07, 7.58, 8.05, 8.47, 8.87, 8.21, 7.09, 9.11, 8.41, 8.05, 7.6, 7.15, 7.06, 6.23, 5.36, 5.06, 5.03, 5.59, 6.95, 8.0, 7.74, 7.15, 7.6, 8.45, 8.33, 8.33, 7.85, 6.98, 6.71, 6.07, 6.8, 7.81, 9.77, 12.7, 14.44, 10.43, 10.35, 11.42, 10.81, 10.15, 9.84, 9.92, 9.45, 6.82, 0.88, -0.88, 0.0, 0.0, 0.0, 0.0, -0.73, -1.79, -2.41, -1.33, -0.0, -0.0, 1.49, 2.68, 2.68, 7.33, 7.33, 7.33, 7.33, 7.95, 7.95, 7.95, 8.56, 8.56, 8.56, 9.13, 9.46, 9.72, 10.06, 10.65, 10.65, 10.65, 11.23, 11.87, 13.01, 13.75, 12.28, 10.91, 10.4, 11.08, 12.33, 13.02, 13.84, 13.57, 13.75, 12.92, 11.61, 10.28, 9.39, 9.39, 9.39, 8.94, 8.49, 8.03, 7.58, 7.58, 7.6, 7.6, 8.03, 7.51, 6.79, 9.32, 8.49, 7.6, 7.15, 6.71, 6.58, 5.01, 4.02, 4.02, 3.68, 4.16, 5.59, 7.21, 6.8, 6.65, 7.11, 7.71, 8.14, 7.63, 6.98, 5.81, 4.6, 4.16, 4.42, 5.72, 6.64, 12.04, 10.28, 6.23, 5.06, 6.92, 8.49, 8.66, 9.08, 9.17, 9.0, 6.73, 1.7, -1.72, -0.78, 0.0, 0.0, 0.0, -2.24, -2.86, -2.79, -1.8, -0.76, -0.0, 0.76, 2.53, 2.53, 7.61, 7.61, 7.61, 7.61, 8.24, 8.24, 8.24, 8.85, 8.85, 8.85, 8.85, 9.46, 9.46, 10.06, 10.3, 10.3, 10.65, 11.23, 12.37, 12.93, 13.23, 13.19, 12.62, 12.33, 11.92, 12.11, 12.11, 12.78, 12.98, 13.54, 13.3, 12.47, 11.57, 10.71, 10.27, 9.83, 9.83, 9.83, 9.39, 8.92, 8.47, 8.03, 7.6, 7.6, 7.13, 6.68, 8.94, 8.49, 7.6, 7.15, 7.06, 6.23, 5.36, 4.74, 3.76, 3.76, 3.35, 4.11, 5.93, 7.07, 6.51, 6.26, 6.51, 6.94, 6.02, 4.92, 3.47, 3.52, 4.12, 4.42, 5.2, 9.21, 11.96, 11.18, 8.94, 5.7, 4.43, 4.44, 6.7, 7.19, 7.67, 8.53, 7.96, 5.06, 0.0, -0.88, 0.0, -0.0, 0.87, -0.0, -3.58, -3.07, -2.41, -1.74, -1.0, -0.0, 1.9, 1.9, 7.61, 7.61, 7.61, 7.61, 7.61, 7.61, 8.24, 8.53, 8.53, 8.85, 8.85, 9.13, 9.46, 9.72, 10.06, 10.59, 10.88, 11.44, 11.8, 12.27, 12.7, 12.95, 13.19, 13.53, 13.24, 12.6, 12.3, 12.3, 12.51, 12.64, 12.75, 12.39, 11.49, 11.11, 10.67, 10.27, 10.27, 10.27, 10.27, 9.82, 9.37, 8.47, 8.49, 8.05, 7.6, 7.6, 8.03, 8.05, 7.6, 7.58, 6.97, 8.17, 6.64, 5.01, 4.43, 4.11, 4.11, 4.0, 5.2, 6.23, 7.63, 6.65, 6.26, 6.26, 4.85, 2.47, 2.35, 3.21, 4.34, 5.34, 7.11, 9.24, 12.47, 12.49, 13.32, 11.96, 8.91, 6.02, 4.75, 4.6, 5.68, 7.02, 8.53, 8.88, 6.94, 4.02, 3.16, 3.47, 4.16, 4.36, 2.68, -2.84, -2.15, -1.9, -1.26, -0.0, 1.26, 1.26, 7.61, 7.61, 7.61, 7.61, 7.61, 7.61, 7.93, 8.24, 8.53, 8.53, 8.85, 9.13, 9.46, 9.72, 10.01, 10.59, 11.16, 11.52, 11.72, 11.9, 12.54, 12.7, 12.95, 13.31, 13.53, 13.32, 13.02, 12.78, 12.51, 12.64, 12.31, 11.95, 11.49, 11.11, 10.67, 10.66, 10.67, 10.71, 10.71, 10.27, 9.82, 9.37, 8.94, 8.49, 8.49, 8.05, 8.49, 8.49, 8.49, 8.49, 8.47, 7.58, 8.41, 6.23, 5.6, 5.01, 5.2, 5.2, 5.2, 5.64, 7.21, 8.17, 7.42, 6.51, 4.11, 1.67, 2.47, 3.32, 5.06, 6.16, 7.15, 9.54, 10.45, 12.94, 13.39, 13.21, 12.79, 11.18, 7.21, 4.26, 4.71, 5.78, 6.98, 7.56, 7.12, 6.44, 4.95, 4.95, 5.06, 5.09, 4.84, -0.85, -2.21, -1.58, -1.26, -0.89, 0.45, 0.45, 7.61, 7.61, 7.61, 7.61, 7.61, 7.61, 7.93, 7.93, 8.53, 8.53, 8.85, 9.13, 9.13, 9.46, 10.01, 10.59, 11.16, 11.16, 11.35, 11.99, 12.16, 12.16, 12.95, 13.19, 12.79, 13.12, 13.32, 13.26, 13.41, 12.94, 12.64, 12.64, 11.86, 11.49, 11.04, 11.11, 10.67, 11.11, 11.11, 10.71, 10.71, 10.27, 9.82, 8.94, 8.94, 8.94, 8.94, 8.94, 8.94, 8.49, 8.49, 8.05, 6.71, 5.78, 5.75, 5.51, 6.14, 5.7, 4.85, 5.29, 7.06, 7.89, 8.87, 6.02, 3.4, 1.58, 2.44, 5.06, 5.82, 7.1, 7.6, 8.63, 10.25, 11.36, 11.62, 12.04, 12.49, 12.07, 8.8, 3.07, 0.0, 0.0, 0.89, 1.58, 1.49, 2.4, 3.22, 4.01, 4.81, 4.84, 4.93, 2.21, -1.9, -1.0, -0.95, -0.89, 0.45, 0.45, 7.32, 7.32, 7.32, 7.32, 7.32, 7.61, 7.93, 7.93, 7.93, 8.53, 8.82, 9.42, 9.42, 9.42, 10.01, 10.59, 10.59, 11.16, 11.44, 11.62, 11.62, 12.42, 12.42, 12.56, 12.79, 13.02, 13.24, 12.83, 13.02, 12.78, 12.94, 12.64, 12.18, 11.86, 11.4, 11.49, 11.05, 11.12, 11.12, 11.12, 10.67, 10.22, 9.82, 9.83, 9.83, 9.83, 10.28, 9.83, 9.39, 9.37, 8.47, 8.03, 7.13, 5.81, 4.92, 5.36, 6.26, 6.26, 4.85, 5.09, 6.26, 8.49, 8.94, 6.7, 3.27, 3.3, 5.59, 6.44, 6.65, 7.15, 8.05, 9.26, 10.02, 10.25, 10.25, 10.75, 11.18, 10.02, 6.16, 0.0, -4.15, -2.98, -2.79, -2.3, -0.0, -0.0, 1.41, 3.07, 4.19, 4.8, 5.09, 3.58, -1.0, -1.58, -0.95, -0.89, 0.0, 0.0, 7.32, 7.32, 7.32, 7.32, 7.32, 7.32, 7.6, 8.22, 8.22, 8.22, 8.82, 9.08, 9.42, 9.42, 10.01, 10.23, 10.59, 10.8, 11.07, 11.62, 11.62, 12.03, 12.42, 12.03, 12.28, 11.88, 12.11, 12.33, 12.53, 12.78, 12.51, 12.51, 12.18, 11.74, 11.71, 11.4, 11.4, 11.49, 11.49, 11.12, 11.11, 10.66, 9.77, 10.25, 9.83, 8.94, 9.83, 10.14, 9.57, 9.77, 8.87, 8.42, 7.07, 6.16, 5.24, 4.77, 6.58, 6.26, 5.29, 5.29, 5.81, 8.01, 7.6, 5.15, 3.27, 4.12, 5.49, 6.08, 6.2, 6.65, 7.85, 9.7, 10.93, 10.95, 10.8, 11.26, 10.87, 7.69, 1.83, -2.4, -4.22, -3.09, -3.64, -2.58, -1.41, -0.0, -0.0, 1.98, 4.0, 4.66, 5.09, 4.8, 2.86, -1.26, -0.89, 0.45, 0.0, 0.0, 7.32, 7.32, 7.6, 7.6, 7.6, 7.6, 7.6, 7.9, 8.22, 8.22, 8.5, 9.08, 9.42, 9.42, 10.01, 10.23, 10.59, 10.8, 11.07, 11.07, 11.62, 11.88, 11.88, 11.75, 11.75, 11.75, 11.99, 11.82, 12.11, 12.11, 12.3, 12.46, 12.04, 11.74, 11.71, 11.28, 11.4, 11.4, 11.4, 11.05, 11.04, 10.6, 10.14, 9.23, 7.97, 10.28, 11.18, 8.77, 7.26, 6.6, 6.79, 6.79, 7.26, 6.47, 5.31, 4.9, 4.9, 5.24, 5.81, 5.36, 6.26, 7.11, 6.07, 4.29, 4.16, 4.16, 4.16, 4.75, 5.09, 6.02, 6.82, 8.3, 10.6, 11.96, 12.37, 12.39, 12.79, 10.23, 4.11, -1.9, -3.95, -3.87, -4.6, -3.64, -2.58, -1.55, -0.0, 0.85, 2.8, 4.15, 4.66, 5.51, 5.16, -0.0, -0.89, 0.89, 0.0, 0.0, 7.6, 7.6, 7.6, 7.6, 7.6, 7.6, 7.6, 7.9, 7.9, 8.22, 8.5, 8.5, 9.08, 9.42, 9.66, 10.01, 10.23, 10.87, 11.07, 11.07, 11.24, 11.5, 11.5, 11.75, 11.75, 11.36, 11.6, 11.41, 11.62, 11.7, 12.3, 12.3, 12.04, 12.04, 11.71, 11.28, 11.37, 10.94, 10.94, 10.94, 11.04, 10.6, 10.14, 9.23, 8.21, 10.25, 11.36, 8.33, 6.16, 4.8, 4.77, 4.6, 4.6, 5.81, 5.08, 5.08, 5.08, 5.31, 4.8, 5.81, 6.26, 6.71, 5.82, 4.74, 4.81, 4.54, 3.58, 3.16, 4.77, 6.14, 5.82, 6.4, 8.45, 11.62, 13.39, 13.78, 13.64, 12.7, 10.95, 7.21, 2.0, -2.24, -2.63, -2.21, -1.98, -0.98, -0.0, 0.76, 2.6, 3.2, 3.95, 4.87, 5.77, 4.47, 0.45, 0.0, 0.0, 0.0, 7.6, 7.6, 7.6, 7.6, 7.6, 7.6, 7.6, 7.9, 7.9, 7.9, 8.5, 8.5, 8.82, 9.08, 9.66, 10.3, 10.51, 10.51, 10.51, 10.7, 11.34, 11.34, 11.5, 11.36, 11.36, 11.6, 11.08, 10.91, 12.15, 11.12, 11.62, 11.62, 11.81, 11.56, 11.56, 11.28, 11.28, 11.37, 11.37, 10.94, 10.94, 10.5, 10.47, 10.01, 9.43, 10.18, 10.81, 10.67, 8.92, 7.6, 6.26, 5.33, 4.44, 3.87, 4.11, 4.55, 4.65, 4.65, 4.8, 4.6, 5.81, 5.75, 5.21, 5.05, 5.75, 5.59, 4.92, 4.47, 5.36, 6.26, 5.81, 5.81, 7.15, 10.22, 13.39, 15.12, 13.29, 11.62, 12.04, 12.66, 12.05, 9.83, 7.92, 4.4, 2.84, 1.11, 0.51, 0.99, 2.6, 3.04, 4.02, 4.47, 5.36, 5.36, 1.79, 0.0, 1.0, 1.0, 7.3, 7.3, 7.3, 7.3, 7.3, 7.6, 7.6, 7.9, 7.9, 7.9, 8.5, 8.78, 8.78, 9.37, 9.94, 9.94, 10.51, 10.15, 10.51, 10.96, 10.96, 10.96, 11.22, 11.22, 11.22, 11.08, 11.08, 10.68, 10.91, 12.29, 10.62, 10.62, 10.91, 10.91, 11.08, 11.08, 11.24, 11.28, 11.28, 11.37, 10.94, 10.94, 10.47, 10.04, 10.04, 10.34, 10.81, 11.49, 11.11, 10.27, 9.37, 8.03, 7.13, 5.78, 4.77, 3.88, 3.73, 4.07, 4.07, 3.88, 4.02, 5.09, 6.23, 5.09, 5.59, 5.75, 5.81, 5.75, 6.14, 6.71, 6.94, 6.8, 7.42, 9.83, 14.28, 16.47, 13.77, 10.6, 9.74, 11.6, 12.96, 13.79, 14.15, 13.83, 8.53, 6.1, 3.39, 2.23, 3.6, 3.13, 3.58, 4.02, 4.87, 5.77, 4.87, 1.0, 0.71, 0.71, 7.3, 7.3, 7.3, 7.3, 7.3, 7.3, 7.6, 8.19, 8.19, 8.19, 8.19, 8.78, 8.78, 8.78, 9.37, 9.94, 9.94, 10.41, 10.41, 10.41, 10.96, 10.96, 11.22, 11.22, 11.22, 11.08, 11.08, 11.08, 11.08, 11.41, 10.71, 10.42, 9.92, 10.0, 10.18, 10.18, 10.66, 10.81, 11.24, 11.24, 10.81, 10.94, 10.5, 10.47, 10.47, 10.47, 10.94, 11.4, 11.04, 10.6, 10.14, 9.77, 8.87, 7.97, 6.51, 5.4, 4.55, 4.65, 4.07, 3.88, 5.81, 5.64, 5.64, 6.07, 5.29, 5.29, 5.36, 5.36, 6.26, 6.71, 6.94, 7.63, 8.41, 10.16, 13.96, 16.01, 14.75, 12.42, 11.42, 11.99, 12.89, 13.79, 14.15, 13.69, 13.25, 7.89, 5.61, 3.7, 4.38, 2.68, 2.68, 3.95, 4.66, 5.64, 5.16, 2.23, 0.71, 0.71, 7.3, 7.3, 7.59, 7.59, 7.59, 7.59, 7.86, 8.19, 8.19, 8.19, 8.19, 8.45, 8.78, 8.78, 9.02, 9.59, 9.86, 9.86, 10.41, 10.41, 10.41, 10.83, 10.83, 10.83, 11.08, 11.08, 11.08, 11.08, 11.08, 11.41, 11.12, 10.91, 10.6, 10.18, 10.18, 9.7, 10.18, 10.18, 10.77, 10.81, 10.81, 10.81, 10.47, 10.47, 10.5, 10.94, 10.94, 11.37, 10.94, 10.94, 10.47, 10.04, 9.57, 9.11, 8.17, 7.26, 6.51, 6.1, 5.6, 4.8, 4.02, 5.64, 5.64, 5.64, 6.14, 6.14, 5.29, 5.75, 6.2, 6.21, 6.21, 7.06, 8.94, 11.62, 13.77, 14.75, 15.01, 14.7, 14.64, 14.57, 14.29, 13.86, 13.41, 12.96, 12.5, 7.58, 6.68, 7.15, 4.47, 3.04, 2.54, 2.8, 5.09, 5.34, 5.16, 3.04, 1.0, 1.0, 7.59, 7.59, 7.59, 7.59, 7.59, 7.59, 7.86, 7.86, 8.19, 8.19, 8.19, 8.45, 8.45, 8.45, 8.78, 9.3, 9.86, 9.86, 9.86, 10.41, 10.68, 10.68, 10.83, 10.83, 11.08, 11.08, 11.08, 11.08, 11.31, 11.31, 11.12, 11.12, 10.91, 10.49, 10.6, 10.18, 9.7, 9.7, 10.34, 10.34, 10.34, 10.34, 10.47, 10.47, 10.5, 10.94, 11.4, 11.28, 11.24, 10.81, 10.34, 9.86, 9.43, 9.39, 8.91, 8.48, 8.0, 7.51, 7.21, 5.7, 4.44, 3.58, 5.81, 4.85, 5.75, 6.58, 5.59, 6.21, 6.71, 6.26, 6.71, 6.26, 8.87, 11.52, 13.39, 13.41, 13.84, 14.11, 15.12, 15.18, 14.3, 12.96, 12.05, 11.15, 10.7, 10.26, 9.81, 7.56, 4.66, 3.22, 3.22, 3.49, 4.19, 4.8, 4.15, 3.04, 1.6, 1.6, 7.59, 7.59, 7.59, 7.59, 7.59, 7.59, 7.59, 7.86, 7.86, 8.19, 8.19, 8.45, 8.45, 8.45, 8.73, 9.3, 9.3, 9.86, 9.86, 10.3, 10.3, 10.3, 10.68, 10.94, 10.68, 10.68, 10.68, 11.08, 10.91, 10.91, 10.91, 11.12, 11.12, 10.91, 10.91, 10.66, 10.6, 10.18, 10.34, 9.91, 9.91, 9.86, 9.57, 10.93, 10.14, 10.94, 11.28, 11.56, 11.13, 10.66, 10.18, 9.7, 9.43, 9.39, 8.96, 8.48, 8.48, 8.0, 6.94, 6.04, 4.8, 3.98, 5.81, 4.92, 5.75, 7.06, 5.75, 6.26, 6.71, 6.26, 6.26, 6.26, 7.5, 10.96, 12.87, 13.41, 12.05, 12.42, 13.77, 14.23, 13.84, 12.5, 11.15, 10.26, 9.72, 9.28, 8.67, 5.86, 4.46, 3.16, 3.07, 3.79, 3.79, 3.48, 2.98, 2.12, 2.24, 2.24, 7.59, 7.59, 7.59, 7.59, 7.59, 7.59, 7.59, 7.86, 7.86, 7.86, 8.19, 8.19, 8.45, 8.73, 8.73, 8.94, 9.3, 9.5, 9.86, 10.13, 10.3, 10.3, 10.3, 10.55, 10.55, 10.68, 10.68, 10.68, 10.91, 10.91, 10.91, 10.5, 10.71, 10.71, 10.71, 10.91, 11.08, 10.66, 10.18, 10.34, 9.86, 9.86, 8.96, 10.45, 10.13, 11.4, 11.56, 11.81, 11.39, 10.91, 10.42, 9.7, 9.7, 9.21, 8.72, 8.3, 8.48, 8.0, 7.21, 6.47, 5.09, 4.34, 5.81, 4.92, 5.36, 6.71, 6.71, 6.26, 6.26, 6.26, 6.26, 5.81, 6.71, 9.8, 13.32, 13.39, 12.07, 11.84, 12.92, 14.0, 13.25, 12.44, 11.6, 10.63, 9.74, 9.11, 7.98, 5.6, 3.79, 3.35, 3.35, 4.11, 3.84, 2.84, 1.9, 1.58, 2.12, 2.24, 7.27, 7.27, 7.27, 7.59, 7.59, 7.59, 7.59, 7.86, 7.86, 7.86, 7.86, 7.86, 8.49, 8.73, 8.73, 8.73, 8.94, 9.3, 9.5, 9.76, 10.13, 10.3, 10.3, 10.55, 10.55, 10.55, 10.68, 10.68, 10.91, 10.91, 10.4, 10.4, 10.62, 10.71, 10.71, 10.71, 10.91, 10.91, 10.66, 10.6, 10.18, 9.86, 9.21, 8.72, 11.18, 11.71, 12.3, 10.91, 10.62, 10.21, 10.0, 9.92, 9.51, 9.01, 8.72, 8.72, 8.22, 7.51, 7.01, 6.3, 5.4, 4.6, 4.43, 6.26, 6.26, 6.71, 5.81, 6.26, 6.71, 6.71, 6.26, 5.81, 6.71, 8.49, 10.66, 11.66, 11.84, 11.62, 11.84, 12.01, 12.49, 12.22, 12.33, 11.42, 10.52, 9.15, 8.4, 6.07, 3.72, 3.22, 3.22, 4.11, 3.84, 2.53, 0.85, 0.0, 1.58, 2.12, 7.27, 7.27, 7.27, 7.27, 7.59, 7.59, 7.59, 7.59, 7.86, 7.86, 7.86, 7.86, 8.15, 8.73, 8.73, 8.73, 8.73, 8.94, 9.3, 9.76, 9.76, 9.76, 9.76, 10.3, 10.55, 10.55, 10.55, 10.55, 10.55, 10.4, 10.4, 10.4, 10.4, 10.62, 10.62, 10.62, 10.62, 10.91, 10.91, 10.42, 10.6, 10.12, 9.7, 9.01, 9.71, 12.98, 11.21, 9.71, 9.01, 9.42, 9.2, 9.2, 9.42, 9.01, 8.91, 8.51, 8.22, 7.51, 7.01, 6.51, 5.81, 4.9, 6.58, 6.14, 6.26, 6.71, 6.26, 7.6, 6.26, 6.71, 6.65, 6.26, 7.06, 7.21, 7.97, 9.76, 10.6, 10.73, 9.54, 9.49, 9.86, 10.79, 11.3, 11.52, 10.6, 9.4, 8.48, 6.64, 4.43, 3.11, 3.22, 4.46, 4.8, 3.22, 0.99, 0.0, 0.85, 0.85, 6.97, 6.97, 7.27, 7.27, 7.27, 7.27, 7.59, 7.59, 7.59, 7.86, 7.86, 8.15, 8.15, 8.15, 8.73, 8.73, 8.73, 8.73, 8.94, 9.3, 9.76, 9.76, 9.76, 9.76, 10.16, 10.55, 10.55, 10.55, 10.55, 10.4, 10.4, 10.4, 10.4, 10.4, 10.62, 10.62, 10.21, 10.21, 10.21, 10.42, 10.42, 10.0, 9.92, 9.71, 10.91, 11.82, 11.39, 9.86, 8.79, 8.72, 8.91, 8.91, 8.68, 8.68, 8.28, 8.51, 8.22, 7.71, 7.51, 6.6, 6.1, 5.81, 5.02, 6.58, 6.26, 6.71, 6.71, 6.71, 5.75, 6.21, 6.65, 6.71, 7.21, 6.8, 7.6, 7.6, 8.8, 9.8, 8.36, 7.21, 7.2, 8.24, 8.49, 9.05, 8.8, 8.24, 8.0, 7.03, 5.09, 3.11, 3.22, 4.46, 4.84, 3.83, 0.0, 0.0, 0.0, 0.0, 6.97, 6.97, 6.97, 7.27, 7.27, 7.27, 7.27, 7.27, 7.59, 7.59, 7.86, 8.15, 8.15, 8.15, 8.15, 8.73, 8.73, 8.73, 8.94, 9.3, 9.58, 9.58, 9.76, 9.76, 9.76, 10.16, 10.55, 10.55, 10.16, 10.16, 10.4, 10.4, 10.4, 10.4, 10.4, 10.21, 10.21, 10.21, 10.21, 10.21, 10.21, 10.42, 10.21, 10.21, 11.12, 11.62, 11.56, 10.81, 10.34, 9.86, 9.27, 9.21, 8.51, 8.4, 8.0, 8.0, 7.48, 7.71, 7.31, 6.8, 6.51, 6.0, 5.31, 7.01, 6.71, 6.71, 6.58, 6.58, 5.59, 6.02, 6.65, 6.65, 6.7, 7.42, 8.05, 8.05, 8.82, 10.25, 10.28, 8.94, 8.05, 8.01, 8.36, 8.19, 7.98, 7.2, 7.03, 6.08, 4.74, 3.72, 3.72, 4.46, 5.21, 1.6, 0.0, 0.0, 0.0, 0.0, 6.97, 6.97, 6.97, 6.97, 7.27, 7.27, 7.27, 7.27, 7.27, 7.27, 7.88, 8.15, 8.15, 8.15, 8.15, 8.38, 8.73, 8.73, 8.73, 8.94, 8.94, 9.21, 9.58, 9.76, 9.76, 9.76, 10.16, 10.16, 10.16, 10.16, 10.16, 10.4, 10.4, 10.4, 10.0, 10.0, 10.11, 10.21, 10.21, 10.21, 10.21, 10.21, 10.21, 10.62, 10.71, 11.12, 11.39, 11.56, 11.13, 11.08, 10.6, 9.7, 9.21, 8.72, 8.0, 7.48, 7.48, 7.08, 7.31, 6.8, 6.6, 6.1, 5.6, 5.31, 7.06, 6.71, 6.58, 6.02, 5.75, 6.02, 6.71, 6.2, 6.7, 7.76, 8.0, 8.82, 9.7, 11.18, 12.07, 12.42, 12.14, 12.44, 12.66, 11.99, 11.18, 10.26, 8.82, 6.79, 4.84, 3.79, 4.74, 3.84, 4.84, 1.8, 0.0, 0.0, 0.0, 0.0, 6.97, 6.97, 6.97, 6.97, 6.97, 7.27, 7.27, 7.27, 7.27, 7.27, 7.55, 7.88, 8.15, 8.15, 8.15, 8.15, 8.73, 8.73, 8.73, 8.73, 8.94, 8.94, 9.21, 9.58, 9.76, 9.76, 9.76, 10.02, 10.02, 10.02, 10.02, 10.16, 10.4, 10.4, 10.0, 9.88, 9.88, 9.88, 10.11, 10.11, 10.21, 10.21, 10.21, 10.62, 10.71, 10.71, 11.12, 11.33, 11.39, 11.33, 10.91, 10.66, 10.18, 9.7, 9.21, 8.0, 7.48, 7.08, 7.2, 6.8, 6.4, 6.1, 5.6, 5.31, 5.24, 6.71, 6.71, 5.81, 6.26, 6.26, 6.2, 6.51, 6.51, 7.21, 7.71, 8.33, 9.8, 11.18, 12.52, 12.3, 12.8, 14.42, 15.61, 15.37, 15.05, 13.84, 12.96, 11.18, 8.46, 6.23, 4.74, 4.81, 4.81, 2.53, 0.0, -0.73, -0.73, -0.73, 6.97, 6.97, 6.97, 6.97, 6.97, 6.97, 7.27, 7.27, 7.55, 7.55, 7.55, 7.55, 8.15, 8.15, 8.15, 8.15, 8.15, 8.73, 8.73, 8.73, 8.73, 8.73, 9.21, 9.21, 9.58, 9.76, 9.76, 10.02, 10.02, 10.02, 10.02, 10.02, 10.02, 10.4, 9.88, 9.88, 9.88, 9.88, 9.88, 9.88, 9.88, 10.0, 10.4, 10.4, 10.4, 10.71, 11.12, 11.12, 11.12, 11.12, 10.91, 10.91, 10.49, 10.42, 9.21, 8.72, 8.22, 7.71, 7.31, 6.8, 6.8, 6.1, 5.6, 5.31, 4.6, 6.58, 6.71, 6.71, 7.06, 6.65, 6.51, 6.51, 6.51, 7.42, 8.0, 8.45, 9.36, 10.7, 11.18, 11.06, 11.66, 14.21, 16.05, 15.69, 15.39, 14.69, 13.41, 12.96, 12.07, 6.79, 4.81, 4.74, 4.01, 2.4, 0.0, -0.81, -0.81, -0.81, 6.97, 6.97, 6.67, 6.67, 6.67, 6.67, 6.97, 7.55, 7.55, 7.55, 7.55, 7.55, 7.55, 8.15, 8.15, 8.15, 8.15, 8.15, 8.73, 8.73, 8.73, 8.73, 8.73, 9.21, 9.21, 9.58, 9.76, 9.76, 10.02, 10.02, 9.63, 10.02, 10.02, 10.02, 9.63, 9.88, 9.88, 9.88, 9.88, 9.88, 9.88, 10.0, 10.4, 10.4, 10.4, 10.4, 10.91, 11.12, 11.12, 11.12, 10.71, 10.71, 10.62, 10.42, 9.92, 9.01, 8.72, 8.22, 7.81, 7.31, 7.01, 6.51, 5.6, 5.31, 4.6, 6.58, 6.58, 7.06, 7.15, 6.71, 7.15, 6.65, 7.11, 7.55, 8.01, 8.45, 8.9, 9.39, 9.8, 10.16, 11.06, 12.74, 14.87, 15.04, 15.69, 15.05, 12.96, 12.05, 11.99, 10.05, 7.35, 4.74, 4.29, 2.6, 0.0, 0.0, 0.0, 0.0, 6.67, 6.67, 6.67, 6.67, 6.67, 6.67, 6.95, 6.95, 7.55, 7.55, 7.55, 7.55, 7.55, 7.88, 8.15, 8.15, 8.15, 8.15, 8.15, 8.38, 8.38, 8.38, 8.73, 8.73, 9.21, 9.21, 9.21, 9.76, 9.76, 9.63, 9.63, 9.63, 10.02, 10.02, 9.63, 9.63, 9.63, 9.63, 9.88, 9.88, 9.88, 9.88, 10.27, 10.4, 10.4, 10.4, 10.8, 10.91, 10.91, 10.91, 10.71, 10.62, 10.62, 10.21, 9.71, 9.42, 9.01, 8.51, 8.3, 7.81, 7.51, 7.01, 6.1, 5.2, 4.8, 6.02, 6.2, 6.71, 6.71, 7.15, 7.6, 8.01, 7.55, 7.55, 7.55, 8.01, 8.05, 8.49, 8.9, 9.36, 10.25, 11.15, 12.3, 13.96, 14.93, 14.69, 10.63, 9.89, 10.37, 10.8, 8.67, 5.77, 4.16, 2.47, 0.82, 0.0, 0.0, 0.0, 6.35, 6.35, 6.35, 6.67, 6.67, 6.67, 6.95, 6.95, 6.95, 7.55, 7.55, 7.55, 7.55, 7.55, 8.15, 8.15, 8.15, 8.15, 8.15, 8.15, 8.15, 8.38, 8.38, 8.73, 9.01, 9.21, 9.21, 9.21, 9.21, 9.21, 9.63, 9.63, 9.63, 9.63, 9.63, 9.63, 9.63, 9.63, 9.63, 9.63, 9.63, 9.63, 10.02, 9.63, 10.02, 10.16, 10.16, 10.55, 10.91, 10.91, 10.8, 10.4, 10.4, 10.11, 9.71, 9.2, 9.2, 8.91, 8.51, 8.22, 7.81, 7.51, 6.6, 6.0, 5.08, 6.16, 6.02, 6.2, 6.26, 7.15, 7.55, 7.55, 7.63, 7.85, 7.55, 7.55, 7.6, 7.6, 8.05, 8.94, 9.83, 10.28, 10.7, 12.42, 14.73, 12.5, 10.18, 8.48, 8.4, 9.34, 9.34, 6.7, 4.29, 2.35, 1.72, 0.0, 0.0, 0.0, 6.35, 6.35, 6.35, 6.67, 6.67, 6.67, 6.95, 6.95, 6.95, 7.27, 7.55, 7.55, 7.55, 7.55, 7.55, 8.15, 8.15, 8.15, 8.15, 8.15, 8.15, 8.15, 8.38, 8.38, 8.38, 9.01, 9.21, 9.21, 9.21, 9.21, 9.21, 9.21, 9.63, 9.63, 9.63, 9.63, 9.63, 9.63, 9.63, 9.63, 9.63, 10.02, 10.02, 9.63, 9.63, 10.02, 10.16, 10.16, 10.16, 10.16, 10.4, 10.4, 10.4, 9.88, 9.48, 9.6, 9.2, 8.68, 8.51, 8.0, 8.22, 7.71, 6.8, 6.51, 5.6, 4.4, 5.75, 5.59, 6.02, 6.2, 6.2, 6.65, 7.12, 6.44, 7.21, 7.42, 7.55, 7.6, 8.05, 8.49, 9.39, 9.39, 9.83, 11.62, 14.74, 13.34, 10.96, 8.48, 7.28, 7.92, 8.88, 7.33, 4.56, 2.51, 1.63, 0.83, 0.83, 0.83, 6.35, 6.35, 6.35, 6.35, 6.67, 6.67, 6.67, 6.95, 6.95, 6.95, 7.55, 7.55, 7.55, 7.55, 7.55, 7.55, 7.81, 7.81, 8.15, 8.15, 8.15, 8.15, 8.15, 8.38, 8.38, 8.65, 9.01, 9.21, 9.21, 9.21, 9.21, 9.21, 9.21, 9.38, 9.63, 9.63, 9.63, 9.63, 9.63, 9.63, 9.63, 9.63, 9.63, 9.63, 9.63, 10.02, 10.02, 10.16, 10.16, 10.16, 10.16, 10.16, 10.4, 9.88, 9.48, 9.35, 8.96, 8.68, 8.28, 8.4, 8.0, 7.71, 7.31, 6.8, 5.6, 4.27, 5.82, 6.16, 5.75, 5.75, 5.75, 6.02, 6.51, 5.82, 6.82, 6.8, 7.21, 7.42, 8.01, 8.45, 8.9, 8.94, 9.83, 14.28, 14.69, 13.79, 12.33, 9.83, 7.28, 6.96, 7.92, 7.92, 5.69, 3.9, 2.47, 1.63, 1.63, 1.63, 6.35, 6.35, 6.35, 6.35, 6.35, 6.67, 6.67, 6.95, 6.95, 6.95, 6.95, 7.55, 7.55, 7.55, 7.55, 7.55, 7.55, 7.55, 7.81, 7.81, 7.81, 8.15, 8.15, 8.15, 8.38, 8.38, 8.65, 9.01, 9.21, 9.21, 9.21, 9.21, 9.21, 9.21, 9.21, 9.21, 9.48, 9.48, 9.48, 9.48, 9.63, 9.63, 9.63, 9.63, 9.63, 9.63, 10.02, 10.02, 10.02, 10.02, 9.63, 10.02, 9.88, 9.88, 9.48, 8.96, 8.82, 8.43, 8.15, 7.76, 8.0, 7.48, 7.31, 6.8, 5.75, 4.55, 3.88, 4.11, 6.45, 6.2, 6.51, 6.51, 6.65, 6.26, 5.75, 5.82, 6.4, 7.21, 7.63, 7.89, 7.89, 8.45, 11.18, 13.41, 14.29, 13.79, 12.66, 10.6, 8.4, 7.28, 7.32, 7.32, 7.07, 5.43, 4.29, 3.11, 3.11, 3.11, 6.35, 6.35, 6.35, 6.35, 6.35, 6.67, 6.67, 6.95, 6.95, 6.95, 6.95, 6.95, 7.23, 7.55, 7.55, 7.55, 7.55, 7.55, 7.55, 7.81, 7.81, 7.81, 8.15, 8.15, 8.15, 8.38, 8.38, 8.73, 9.01, 9.21, 9.21, 9.21, 9.21, 9.21, 9.21, 9.21, 9.21, 9.48, 9.48, 9.48, 9.48, 9.48, 9.48, 9.48, 9.48, 9.63, 9.63, 9.63, 9.63, 9.63, 9.63, 9.63, 9.88, 9.88, 9.35, 8.96, 8.82, 8.43, 8.15, 7.76, 7.61, 7.48, 7.48, 6.95, 6.28, 4.84, 4.0, 3.88, 6.16, 6.51, 6.94, 7.1, 7.15, 7.15, 7.1, 6.65, 6.51, 7.12, 7.63, 7.71, 7.63, 7.89, 9.81, 12.07, 13.39, 12.86, 11.18, 10.01, 8.8, 7.85, 7.28, 7.28, 7.42, 7.03, 6.44, 4.12, 4.12, 4.12, 6.35, 6.35, 6.35, 6.35, 6.35, 6.35, 6.67, 6.67, 6.95, 6.95, 6.95, 6.95, 6.95, 7.23, 7.55, 7.55, 7.55, 7.55, 7.55, 7.55, 7.81, 7.81, 8.15, 8.15, 8.15, 8.15, 8.38, 8.38, 8.73, 9.01, 9.21, 9.21, 9.21, 9.21, 9.21, 9.21, 9.21, 9.48, 9.48, 9.48, 9.48, 9.48, 9.48, 9.48, 9.1, 9.48, 9.48, 9.63, 9.63, 9.63, 9.63, 9.48, 9.48, 9.35, 9.35, 8.96, 8.82, 8.43, 7.9, 7.76, 7.61, 7.23, 7.48, 6.95, 6.41, 5.75, 4.29, 4.0, 4.17, 6.7, 6.94, 7.1, 7.15, 7.15, 7.11, 7.11, 6.71, 7.11, 7.42, 7.63, 7.63, 7.71, 9.06, 11.06, 12.41, 11.36, 9.6, 8.8, 7.92, 7.54, 7.67, 7.28, 7.28, 7.42, 6.82, 6.07, 6.07, 6.07, 6.35, 6.35, 6.35, 6.35, 6.35, 6.35, 6.35, 6.67, 6.95, 6.95, 6.95, 6.95, 6.95, 6.95, 7.23, 7.55, 7.55, 7.55, 7.55, 7.55, 7.55, 7.81, 8.15, 8.15, 8.15, 8.15, 8.15, 8.38, 8.38, 8.73, 8.73, 9.01, 9.21, 9.21, 9.21, 9.21, 9.21, 9.1, 9.1, 9.1, 9.1, 9.1, 9.1, 9.1, 9.1, 9.1, 9.1, 9.1, 9.63, 9.63, 9.1, 9.35, 9.35, 9.35, 8.96, 8.96, 8.43, 8.43, 7.9, 7.9, 7.61, 7.23, 7.07, 6.95, 6.56, 6.03, 5.21, 4.29, 4.07, 5.82, 6.28, 6.7, 6.51, 6.26, 6.26, 6.71, 6.65, 7.1, 7.42, 7.21, 7.21, 7.63, 8.63, 10.45, 11.84, 11.18, 8.8, 6.98, 6.68, 6.68, 7.32, 7.32, 6.96, 7.07, 6.82, 6.44, 6.44, 6.44, 6.0, 6.0, 6.35, 6.35, 6.35, 6.35, 6.35, 6.35, 6.67, 6.95, 6.95, 6.95, 6.95, 6.95, 6.95, 7.55, 7.55, 7.55, 7.55, 7.55, 7.55, 7.55, 8.15, 8.15, 8.15, 8.15, 8.15, 8.15, 8.38, 8.38, 8.73, 8.73, 9.01, 9.21, 9.21, 9.21, 8.84, 9.1, 9.1, 9.1, 9.1, 9.1, 9.1, 9.1, 9.1, 9.1, 9.1, 9.1, 9.35, 9.35, 9.35, 9.35, 9.35, 8.96, 8.96, 8.82, 8.43, 8.27, 7.9, 7.72, 7.35, 7.23, 7.07, 6.7, 6.7, 6.41, 5.49, 4.71, 4.71, 5.43, 5.82, 6.21, 5.75, 5.59, 5.75, 6.2, 6.65, 6.51, 6.7, 7.12, 7.21, 7.71, 8.63, 10.25, 12.09, 11.66, 9.49, 6.7, 5.21, 5.21, 5.94, 6.68, 6.98, 6.39, 6.44, 6.08, 6.08, 6.08, 6.0, 6.0, 6.0, 6.0, 6.35, 6.35, 6.35, 6.35, 6.35, 6.67, 6.67, 6.95, 6.95, 6.95, 6.95, 7.27, 7.55, 7.55, 7.55, 7.55, 7.55, 7.55, 7.88, 8.15, 8.15, 8.15, 8.15, 8.15, 8.15, 8.38, 8.38, 8.38, 8.65, 8.65, 8.65, 8.65, 8.65, 8.93, 8.93, 8.93, 8.93, 8.93, 8.55, 8.55, 8.55, 8.96, 8.96, 9.35, 9.35, 9.35, 9.35, 9.35, 8.96, 8.96, 8.96, 8.82, 8.43, 8.27, 7.9, 7.72, 7.35, 7.35, 7.07, 7.07, 6.7, 6.15, 5.59, 5.01, 4.74, 5.01, 5.49, 6.8, 6.16, 6.02, 6.2, 6.21, 6.71, 6.71, 7.1, 6.94, 7.42, 8.14, 9.06, 10.25, 12.09, 13.05, 11.66, 8.4, 6.7, 5.3, 5.21, 5.94, 6.32, 6.39, 5.69, 5.69, 5.69, 5.69, 5.72, 5.72, 6.0, 6.0, 6.0, 6.35, 6.35, 6.35, 6.35, 6.35, 6.67, 6.67, 6.67, 6.67, 6.95, 7.27, 7.27, 7.55, 7.55, 7.55, 7.55, 7.55, 7.55, 7.88, 8.15, 8.15, 8.15, 8.15, 8.15, 8.15, 8.15, 8.38, 8.65, 8.65, 8.65, 8.65, 8.65, 8.93, 8.93, 8.55, 8.55, 8.55, 8.55, 8.55, 8.82, 8.82, 8.82, 8.96, 8.96, 8.96, 9.35, 8.96, 8.96, 8.96, 8.96, 8.82, 8.43, 8.27, 7.9, 7.72, 7.35, 7.35, 6.79, 7.07, 6.7, 6.15, 5.93, 5.59, 5.01, 5.35, 5.59, 6.82, 6.7, 7.06, 5.81, 6.26, 6.71, 7.15, 7.15, 7.11, 7.42, 8.14, 9.06, 9.83, 12.27, 13.65, 12.74, 11.36, 9.4, 7.73, 6.7, 5.69, 5.94, 5.64, 5.64, 5.3, 5.3, 5.3, 5.46, 5.46, 5.46, 5.72, 6.0, 6.0, 6.35, 6.35, 6.35, 6.35, 6.35, 6.67, 6.67, 6.67, 6.67, 6.67, 7.27, 7.55, 7.55, 7.55, 7.55, 7.55, 7.55, 7.55, 7.88, 8.15, 8.15, 8.15, 8.15, 8.15, 8.15, 8.15, 8.38, 8.65, 8.65, 8.65, 8.65, 8.65, 8.55, 8.55, 8.55, 8.55, 8.55, 8.82, 8.82, 8.82, 8.82, 8.82, 8.96, 8.96, 8.96, 8.96, 8.96, 8.96, 8.82, 8.43, 8.43, 7.9, 7.9, 7.72, 7.35, 7.35, 6.79, 6.79, 6.7, 6.51, 5.93, 5.59, 5.35, 5.35, 5.35, 5.86, 5.6, 7.5, 5.81, 6.26, 6.26, 6.71, 6.71, 6.65, 6.94, 7.71, 8.56, 9.75, 11.66, 13.21, 13.32, 12.42, 10.93, 10.02, 9.54, 8.3, 6.35, 5.21, 4.94, 4.83, 4.83, 4.83, 5.46, 5.46, 5.46, 5.72, 6.0, 6.0, 6.35, 6.35, 6.35, 6.35, 6.35, 6.67, 6.67, 6.67, 6.67, 6.67, 7.27, 7.55, 7.55, 7.55, 7.55, 7.55, 7.55, 7.55, 7.88, 8.15, 8.15, 8.15, 8.15, 8.15, 8.15, 8.15, 8.38, 8.65, 8.65, 8.65, 8.65, 8.65, 8.55, 8.55, 8.55, 8.55, 8.55, 8.82, 8.82, 8.82, 8.82, 8.82, 8.96, 8.96, 8.96, 8.96, 8.96, 8.96, 8.82, 8.43, 8.43, 7.9, 7.9, 7.72, 7.35, 7.35, 6.79, 6.79, 6.7, 6.51, 5.93, 5.59, 5.35, 5.35, 5.35, 5.86, 5.6, 7.5, 5.81, 6.26, 6.71, 6.71, 6.71, 6.65, 6.94, 7.21, 8.14, 9.33, 11.18, 12.74, 12.87, 12.42, 11.52, 10.62, 10.62, 10.16, 8.3, 5.69, 4.03, 4.03, 4.03, 4.03]}, {"header": {"dx": 0.06612293990616946, "dy": 0.0552356325346848, "nx": 98, "ny": 59, "la1": 35.046912555036876, "la2": 31.78801023549047, "lo1": -121.43107172385933, "lo2": -114.95102361305473, "refTime": "2026040701", "parameterCategory": 1, "parameterNumber": 3}, "data": [-8.53, -8.53, -8.53, -8.53, -8.53, -8.24, -8.22, -8.22, -7.6, -7.3, -6.35, -5.08, -5.06, -3.15, -1.65, -1.73, -0.95, 0.0, 0.0, 0.0, 0.0, 0.0, 0.0, -0.8, -1.52, -1.68, -3.27, -4.6, -5.29, -5.29, -5.29, -5.36, -4.92, -4.85, -5.09, -5.2, -5.21, -4.81, -5.15, -4.65, -4.56, -5.1, -5.46, -5.98, -6.97, -7.01, -7.82, -7.71, -7.23, -5.48, -4.68, -3.95, -3.11, -2.49, -1.56, -1.63, -0.8, -0.8, -0.8, 0.0, 0.0, 0.0, 0.0, 0.77, 0.83, 1.64, 1.64, 1.58, 1.58, 1.63, 1.5, 0.85, 0.8, 0.0, 0.0, 0.0, 0.0, 0.0, 0.0, 0.0, 0.0, 0.0, 0.0, 0.0, -0.96, -0.73, 0.0, 0.0, 0.0, 0.0, -0.82, -0.82, -0.89, -0.82, 0.0, 0.0, 0.0, 0.0, -8.82, -8.82, -8.82, -8.82, -8.53, -8.53, -8.22, -7.9, -7.59, -7.27, -6.67, -6.42, -4.83, -4.0, -3.52, -2.54, -1.84, -1.32, -1.23, -1.7, -1.41, -1.41, -1.23, -1.18, -2.4, -3.32, -4.12, -5.2, -5.29, -5.09, -5.09, -5.29, -4.92, -4.92, -5.09, -5.2, -5.21, -5.46, -5.82, -5.77, -6.01, -5.72, -6.69, -7.82, -8.37, -9.6, -8.99, -8.18, -6.43, -4.68, -4.07, -3.36, -3.11, -2.89, -2.15, -1.58, -1.58, -0.8, -0.77, -0.77, 0.0, 0.0, 0.0, 0.0, 0.0, 0.8, 0.8, 0.8, 0.76, 0.82, 0.79, 0.0, 0.0, 0.0, 0.0, 0.0, 0.0, 0.0, 0.0, 0.0, 0.0, 0.0, 0.0, 0.0, -0.96, -0.73, 0.0, 0.0, 0.0, 0.0, -0.82, -0.82, -0.89, -0.82, 0.0, 0.0, 0.0, 0.0, -8.82, -8.82, -8.82, -8.82, -8.5, -8.22, -8.22, -7.9, -7.59, -7.55, -6.95, -6.32, -5.76, -5.21, -3.8, -3.27, -2.4, -2.51, -2.64, -2.49, -2.6, -2.8, -2.6, -2.8, -3.68, -4.03, -5.24, -5.75, -5.29, -5.59, -5.59, -5.75, -5.75, -5.81, -5.29, -6.23, -5.82, -5.82, -6.82, -7.07, -7.33, -7.94, -8.53, -9.48, -9.7, -9.31, -8.05, -6.33, -4.8, -3.88, -3.32, -3.21, -3.36, -3.25, -2.82, -2.51, -1.58, -1.64, -1.54, -0.77, -0.77, 0.0, 0.0, 0.0, 0.0, 0.0, 0.0, 0.0, 0.0, 0.0, 0.0, 0.0, 0.0, 0.0, 0.0, 0.0, 0.0, 0.0, 0.0, 0.0, 0.0, -0.76, -0.88, -0.81, -1.41, -1.49, -1.49, -0.88, -0.81, -1.6, -1.6, -0.82, -0.82, -0.82, -0.82, 0.0, 0.0, -0.76, -8.82, -8.82, -8.82, -8.5, -8.22, -8.22, -8.22, -8.19, -7.86, -7.55, -7.51, -6.92, -6.53, -5.49, -4.96, -4.96, -4.12, -3.8, -3.4, -3.33, -2.47, -2.49, -2.49, -3.11, -3.47, -5.37, -6.18, -6.21, -5.75, -6.02, -6.51, -7.1, -7.1, -7.15, -7.06, -6.79, -7.2, -7.07, -8.05, -8.67, -9.3, -9.96, -9.56, -8.76, -8.01, -7.24, -5.63, -4.07, -3.21, -2.35, -2.23, -2.47, -2.47, -2.39, -2.39, -2.31, -1.58, -1.64, -1.54, -1.54, -0.77, -0.77, -0.8, 0.0, 0.0, 0.0, 0.0, 0.0, 0.0, 0.0, 0.0, 0.0, -0.78, -0.71, -0.73, -0.8, -0.79, -0.89, -0.78, -0.82, -0.72, -0.82, -0.88, -1.55, -1.83, -2.0, -2.41, -2.68, -2.53, -2.4, -1.84, -1.84, -1.6, -1.47, -0.76, -0.82, -0.82, -1.6, -8.82, -8.82, -8.5, -8.22, -8.22, -8.22, -7.9, -8.19, -7.86, -7.81, -7.51, -7.44, -6.95, -6.18, -5.49, -5.76, -5.13, -4.96, -5.1, -5.24, -5.37, -5.06, -4.02, -3.68, -3.33, -5.06, -7.21, -7.6, -7.06, -6.65, -7.11, -7.55, -8.01, -8.05, -8.85, -8.6, -9.03, -9.2, -10.0, -10.23, -10.28, -9.0, -7.9, -7.18, -5.52, -4.71, -3.88, -3.21, -2.47, -1.68, -1.68, -1.68, -1.54, -1.54, -1.62, -1.56, -1.63, -0.8, -0.83, -1.54, -0.83, -0.8, -0.8, 0.0, 0.0, 0.0, 0.0, 0.0, 0.0, 0.0, 0.0, -0.79, -0.72, -1.54, -1.6, -2.12, -1.65, -1.55, -1.63, -1.52, -1.41, -1.6, -1.84, -1.7, -1.83, -2.53, -2.68, -3.58, -3.48, -3.35, -2.4, -2.6, -2.6, -2.4, -1.84, -1.6, -1.6, -2.29, -8.5, -8.5, -8.5, -8.22, -8.22, -8.22, -7.9, -8.19, -8.15, -7.81, -7.8, -7.44, -7.35, -6.18, -6.18, -5.76, -6.24, -6.48, -6.53, -7.35, -7.44, -7.35, -7.21, -6.23, -5.72, -5.93, -7.94, -8.05, -7.5, -7.6, -7.6, -7.6, -8.05, -8.46, -8.46, -8.82, -8.63, -8.4, -9.03, -9.6, -9.03, -8.0, -6.64, -5.64, -5.06, -4.2, -3.21, -3.21, -2.47, -2.28, -1.54, -1.54, -1.62, -0.82, -0.79, -0.82, -0.82, -0.76, -0.83, -0.77, -0.8, -0.76, 0.0, 0.0, 0.0, 0.0, 0.0, 0.0, 0.0, 0.0, 0.0, -0.82, -0.79, -1.62, -2.35, -2.44, -2.4, -2.51, -3.2, -2.64, -2.47, -2.47, -2.6, -2.4, -2.76, -2.76, -3.48, -3.58, -3.93, -3.84, -3.35, -3.22, -3.22, -3.22, -2.6, -2.6, -2.6, -2.47, -8.5, -8.5, -8.5, -8.22, -8.22, -8.22, -8.19, -8.19, -8.15, -8.08, -8.0, -7.72, -7.35, -5.76, -5.98, -5.76, -6.53, -7.13, -7.97, -8.3, -7.64, -8.06, -7.35, -8.0, -7.97, -8.17, -8.05, -7.97, -7.5, -7.1, -8.05, -7.6, -8.01, -7.89, -8.36, -8.36, -8.63, -8.63, -8.63, -8.82, -9.21, -7.76, -7.44, -6.01, -4.46, -3.27, -3.15, -2.35, -2.47, -2.13, -2.13, -1.68, -1.62, -1.62, -1.56, -1.63, -0.82, -0.76, -0.8, -0.8, -0.76, 0.0, 0.0, 0.0, 0.0, 0.0, 0.0, 0.0, 0.0, 0.0, -0.8, -0.76, -0.73, -1.56, -1.54, -1.6, -2.54, -3.4, -4.03, -4.03, -3.33, -3.33, -3.11, -3.22, -3.63, -3.35, -3.07, -3.16, -3.58, -4.6, -4.46, -4.11, -3.72, -3.22, -3.47, -3.47, -3.47, -3.22, -8.5, -8.5, -8.5, -8.22, -8.22, -8.22, -8.19, -8.19, -8.15, -8.08, -8.0, -8.15, -7.76, -7.27, -6.98, -6.14, -6.79, -7.08, -7.59, -7.27, -6.42, -5.18, -4.92, -5.76, -6.44, -6.79, -6.71, -7.06, -7.5, -7.97, -8.05, -8.94, -9.32, -9.11, -8.19, -7.92, -7.71, -6.7, -6.64, -7.21, -6.58, -4.8, -2.73, -1.41, 0.0, 0.0, 0.0, 0.0, -0.85, -1.16, -0.85, -0.81, -0.82, -0.82, -0.79, -0.82, -0.82, -0.76, -0.8, -0.8, 0.0, 0.0, 0.0, 0.0, 0.0, 0.0, 0.0, 0.0, 0.0, 0.0, 0.0, 0.0, 0.0, 0.0, 0.0, -0.69, -1.52, -2.31, -3.09, -4.42, -4.65, -3.9, -3.64, -3.11, -3.22, -2.98, -3.07, -3.48, -3.93, -4.6, -5.05, -4.46, -4.11, -4.01, -4.01, -4.01, -4.01, -3.47, -8.5, -8.5, -8.5, -8.5, -8.22, -8.22, -8.78, -8.45, -8.73, -8.65, -9.1, -9.6, -10.55, -10.43, -9.04, -8.73, -9.0, -8.6, -7.97, -7.35, -6.95, -4.6, -4.17, -3.42, -4.13, -4.66, -3.79, -2.68, -4.92, -7.15, -8.05, -8.05, -7.94, -7.21, -6.98, -7.42, -7.06, -3.13, -2.68, -2.68, 0.0, 2.8, 3.72, 3.79, 3.76, 2.8, 2.66, 1.25, 1.75, 0.85, 0.0, 0.0, 0.0, 0.0, 0.0, 0.0, 0.0, 0.0, -0.8, 0.0, 0.0, 0.0, 0.0, 0.0, 0.79, 2.41, 2.51, 2.41, 2.41, 2.34, 1.64, 1.44, 0.77, 0.7, 0.0, 0.0, 0.0, -0.85, -1.67, -3.09, -4.16, -4.36, -4.36, -3.64, -3.72, -3.43, -3.07, -3.48, -3.16, -3.16, -3.84, -4.46, -4.46, -4.01, -4.29, -4.29, -4.01, -4.01, -8.5, -8.5, -8.5, -8.5, -8.5, -8.5, -8.5, -8.78, -8.45, -8.94, -9.76, -10.68, -9.86, -10.55, -11.02, -11.02, -12.03, -12.56, -11.8, -11.62, -11.21, -10.55, -9.42, -8.24, -7.95, -6.44, -3.4, 1.27, 0.0, -4.09, -4.92, -2.24, 0.0, 0.0, -2.84, -4.8, -2.68, 2.54, 3.58, 2.73, 4.54, 4.81, 4.74, 3.47, 2.47, 1.72, 1.63, 1.73, 1.75, 1.67, 1.52, 1.6, 0.78, 0.78, 0.0, 0.0, 0.0, 0.0, -0.76, -0.82, -0.79, -0.75, 0.0, 1.58, 4.96, 5.9, 4.8, 4.31, 3.69, 2.41, 1.52, 1.48, 0.7, 0.7, 0.0, 0.0, 0.0, -0.79, -0.72, -1.47, -2.18, -3.55, -5.09, -4.74, -3.72, -3.07, -3.16, -2.41, -1.6, -1.33, -1.49, -2.3, -3.35, -3.22, -3.11, -3.33, -3.9, -4.29, -8.5, -8.5, -8.5, -8.5, -8.5, -8.5, -8.5, -8.78, -8.78, -9.02, -9.86, -10.7, -10.94, -10.59, -10.73, -11.26, -11.64, -10.62, -10.21, -10.91, -13.99, -14.33, -14.05, -12.62, -11.69, -8.37, -4.43, 1.9, 1.9, 0.0, 0.0, 3.13, 3.58, 3.13, 1.2, 0.0, 1.6, 4.09, 3.48, 3.33, 4.42, 4.16, 3.55, 2.4, 1.32, 0.82, 0.83, 1.73, 1.73, 1.65, 0.89, 0.85, 0.0, 0.0, -0.81, -1.54, -1.62, -2.31, -2.31, -2.39, -2.39, -0.77, 2.51, 6.79, 8.42, 7.97, 6.42, 4.83, 3.32, 1.6, 0.82, 0.0, 0.0, 0.0, 0.0, -0.71, -0.71, -0.79, -1.62, -1.54, -1.4, -2.12, -3.55, -5.09, -4.12, -3.22, -1.49, -0.71, 0.0, 0.0, 0.0, -0.81, -0.88, -1.6, -2.35, -2.35, -2.35, -3.33, -8.5, -8.5, -8.5, -8.5, -8.5, -8.5, -8.5, -8.82, -9.08, -9.37, -9.94, -10.59, -10.88, -10.4, -9.21, -7.96, -6.67, -6.28, -6.87, -7.51, -7.55, -7.55, -7.17, -9.53, -7.47, -5.44, -2.4, 0.32, 1.79, 0.0, 1.9, 2.97, 3.58, 2.97, 2.21, 2.53, 2.68, 4.11, 4.43, 4.16, 4.03, 3.2, 3.2, 1.18, 0.0, 0.88, 1.41, 2.6, 2.32, 1.32, 0.0, 0.0, -0.79, -1.65, -2.54, -3.32, -3.88, -4.07, -4.71, -4.2, -1.63, 3.35, 7.35, 8.95, 9.2, 9.03, 8.06, 5.89, 3.27, 0.85, 0.0, -0.72, -1.5, -1.62, -1.62, -1.69, -2.39, -2.39, -2.21, -2.76, -2.35, -2.35, -3.4, -5.21, -4.15, -2.54, -0.95, 0.0, 0.0, 0.0, 0.0, 0.0, -0.76, -0.78, -0.83, -1.55, -1.55, -1.55, -8.78, -8.5, -8.5, -8.5, -8.5, -8.82, -8.82, -8.82, -9.08, -9.42, -10.01, -10.59, -10.65, -11.33, -10.13, -8.18, -6.27, -4.6, -4.42, -4.4, -4.36, -3.84, -3.34, -1.67, -0.58, 0.0, 0.53, 1.04, 0.54, 0.45, 1.26, 2.98, 2.98, 2.98, 2.84, 3.93, 4.19, 4.43, 4.43, 3.47, 3.33, 2.64, 2.35, 0.89, 0.0, 0.0, 2.48, 2.98, 2.4, 1.14, 0.0, -1.52, -2.35, -1.6, -1.41, 0.0, -1.32, -3.6, -4.83, -4.19, 4.02, 7.55, 9.06, 9.54, 9.97, 9.33, 7.67, 6.01, 2.4, 0.0, -0.8, -2.44, -3.32, -3.88, -4.07, -4.07, -3.88, -3.88, -3.44, -3.44, -3.7, -3.21, -3.6, -3.35, -3.9, -2.68, -1.6, -1.26, -0.71, -0.76, -1.49, -1.55, -0.76, -0.78, -0.83, -0.79, -0.79, 0.0, -8.78, -8.78, -8.5, -8.5, -8.82, -8.82, -8.82, -9.08, -9.42, -9.42, -9.72, -10.06, -10.69, -11.33, -10.47, -9.48, -8.18, -6.0, -5.14, -4.68, -3.96, -3.53, -2.83, -1.7, -0.57, 0.0, 0.58, 1.09, 0.57, 0.0, 0.0, 1.13, 1.55, 1.8, 3.48, 4.19, 4.19, 4.43, 3.47, 2.47, 1.72, 0.89, 0.0, 0.0, 0.0, 1.55, 4.15, 4.09, 2.73, 1.3, 0.0, -1.23, 0.0, 1.6, 3.6, 2.84, 1.41, -2.8, -5.75, -1.2, 7.63, 9.39, 9.54, 9.11, 8.14, 7.63, 5.82, 4.01, 2.4, 0.83, 0.0, -1.65, -4.12, -5.76, -5.76, -5.76, -5.49, -4.96, -4.96, -4.96, -4.96, -4.83, -4.14, -2.98, -3.47, -3.13, -2.68, -2.54, -2.23, -2.53, -2.41, -2.3, -2.11, -1.6, -0.69, -0.79, 0.0, 0.0, -8.78, -8.78, -8.5, -8.5, -8.82, -8.82, -8.82, -9.13, -9.13, -9.46, -9.72, -9.77, -10.4, -10.43, -10.76, -10.13, -9.2, -7.73, -6.6, -5.42, -5.05, -4.17, -3.44, -2.33, -1.74, 0.0, 0.0, 1.18, 1.17, 0.56, 0.0, 0.0, 0.0, 1.41, 2.6, 5.01, 5.06, 4.74, 3.68, 0.89, 0.0, 0.0, 0.0, 0.0, 0.0, 3.79, 6.14, 5.2, 2.98, 1.41, 0.0, 0.0, 2.73, 4.66, 4.66, 3.16, 0.0, -2.29, -4.11, 2.68, 8.05, 8.49, 7.63, 6.13, 6.13, 5.01, 4.11, 2.6, 2.8, 1.32, 0.0, -1.58, -4.12, -6.32, -7.06, -7.41, -6.73, -6.39, -5.69, -5.69, -5.69, -5.1, -4.56, -2.98, -0.85, -2.54, -3.58, -3.58, -3.51, -4.0, -3.16, -3.07, -2.73, -2.11, -1.72, 0.0, 0.0, 0.0, -8.78, -8.78, -8.5, -8.5, -8.82, -8.82, -9.13, -9.13, -9.13, -9.46, -10.06, -10.09, -10.12, -10.43, -10.13, -9.84, -9.48, -8.81, -7.7, -6.52, -5.34, -3.98, -3.55, -2.31, -1.17, 0.0, 0.58, 1.16, 1.17, 1.16, 0.0, -0.58, -0.58, 0.0, 1.32, 3.22, 5.06, 4.95, 2.4, 0.0, -0.78, -0.83, -1.25, 0.0, 1.23, 5.2, 6.26, 5.64, 4.46, 2.98, 1.41, 2.4, 3.49, 3.49, 2.4, 1.3, 0.0, -2.4, 0.0, 4.71, 8.4, 8.22, 5.93, 4.47, 2.8, 1.52, 1.7, 2.6, 2.6, 0.0, -0.79, -3.06, -5.21, -6.73, -7.42, -5.82, -4.11, -3.63, -2.6, -2.6, -2.8, -3.33, -4.29, -3.48, -0.99, 0.0, -2.97, -4.02, -4.47, -4.15, -4.22, -3.16, -2.73, -2.11, -1.41, -0.67, 0.0, 0.0, -8.78, -8.78, -8.5, -8.82, -8.82, -9.08, -9.13, -9.13, -9.46, -9.46, -9.77, -10.09, -9.8, -9.82, -9.84, -9.5, -9.49, -8.83, -8.14, -7.0, -5.81, -4.22, -3.42, -1.74, 0.0, 0.0, 0.0, 0.59, 0.6, 0.58, 0.0, -1.17, -1.06, 0.0, 0.0, 2.2, 3.33, 3.68, 1.23, 0.0, -1.32, -0.76, 0.0, 0.0, 2.6, 5.2, 6.14, 5.2, 4.43, 3.76, 3.45, 3.68, 3.68, 3.91, 2.4, 1.25, 0.0, 0.0, 3.45, 6.71, 7.59, 6.64, 5.03, 3.6, 1.32, 0.83, 0.0, 0.0, 0.0, -2.49, -4.96, -5.94, -5.77, -4.8, -2.97, 0.99, 2.4, 2.51, 2.54, 1.67, 0.8, 0.0, -1.63, -3.07, -2.98, -1.9, -1.58, -4.02, -4.38, -4.38, -3.74, -3.45, -3.16, -2.2, -1.7, -1.35, -0.7, -0.7, -8.78, -8.78, -8.78, -8.82, -9.08, -9.08, -9.13, -9.13, -9.46, -9.46, -9.48, -9.77, -9.8, -9.82, -9.5, -8.86, -8.85, -8.83, -7.5, -6.36, -5.34, -4.6, -4.07, -1.76, 0.0, 0.0, -0.59, -0.59, -0.57, -1.15, -1.74, -1.14, -0.56, -0.57, 0.0, 0.0, 0.0, -1.18, -1.1, 0.0, 0.0, 0.0, 0.0, 1.41, 4.11, 5.36, 5.75, 5.36, 4.02, 3.68, 3.91, 3.91, 3.4, 3.6, 2.54, 2.21, 2.33, 3.7, 4.88, 6.69, 5.98, 5.46, 3.52, 2.33, 1.2, 0.0, 0.0, -1.32, -3.68, -5.31, -4.71, -3.72, -0.96, 1.83, 4.16, 5.49, 4.92, 4.68, 3.91, 3.07, 2.41, 0.79, 0.0, -3.74, -3.2, -2.98, -3.47, -4.02, -4.47, -4.02, -3.95, -4.15, -3.83, -3.48, -2.53, -1.83, -1.55, -1.55, -8.78, -8.78, -8.78, -9.08, -9.08, -9.08, -9.13, -9.13, -9.46, -9.17, -9.48, -9.48, -9.5, -9.5, -9.5, -9.49, -8.86, -8.59, -6.92, -5.28, -5.3, -5.9, -5.81, -4.81, -3.28, -3.37, -3.41, -3.98, -3.98, -2.85, -2.28, -0.55, 0.0, -0.53, -1.13, -1.76, -2.82, -3.4, -3.32, -1.2, 0.0, 0.89, 1.18, 2.4, 4.75, 4.75, 4.75, 3.91, 3.68, 3.68, 3.91, 3.4, 3.6, 2.54, 3.6, 3.35, 3.52, 4.66, 5.72, 5.72, 4.66, 3.52, 2.46, 0.8, 0.0, 0.0, -0.84, -1.65, -2.44, -2.39, 0.0, 1.56, 3.96, 5.55, 5.55, 4.1, 2.37, 0.8, 0.8, 0.77, 0.0, -0.81, -2.47, -4.66, -4.38, -3.9, -3.58, -3.95, -4.47, -4.02, -4.38, -5.09, -4.22, -2.15, -0.87, -0.79, 0.0, 0.0, -8.78, -9.02, -9.02, -9.08, -9.08, -9.08, -9.13, -9.13, -9.46, -9.46, -9.17, -9.48, -9.19, -9.5, -9.5, -8.86, -8.59, -8.24, -8.3, -7.25, -7.08, -7.84, -8.77, -8.74, -8.86, -7.93, -7.23, -4.98, -4.51, -2.77, -1.1, 0.0, 0.0, 0.0, 0.0, -1.61, -2.61, -3.42, -2.71, -1.67, 0.0, 1.11, 2.25, 2.77, 4.0, 3.45, 3.8, 3.6, 2.4, 2.66, 2.66, 2.4, 2.4, 3.4, 3.2, 4.83, 5.72, 5.21, 4.96, 3.45, 2.46, 1.2, 0.0, 0.0, 0.0, -0.84, -0.84, -1.65, -0.85, 0.0, 0.77, 3.1, 4.67, 3.86, 2.4, 0.0, -0.77, -2.39, -2.37, -1.58, -1.56, -1.54, -2.51, -4.57, -4.92, -4.02, -4.02, -4.41, -4.41, -4.92, -5.29, -3.9, -0.95, 1.6, 2.23, 2.53, 2.41, 2.41, -9.02, -9.02, -9.02, -9.08, -9.08, -9.08, -9.13, -9.13, -9.13, -9.46, -9.17, -9.48, -9.19, -9.5, -9.5, -9.21, -8.59, -8.24, -8.85, -10.34, -10.32, -8.81, -9.21, -8.83, -8.81, -7.73, -5.77, -4.02, -2.75, -1.11, 0.0, 0.53, 0.5, 0.57, 0.0, 0.0, -1.11, -1.7, -2.26, -1.69, 0.0, 0.55, 1.69, 2.9, 3.49, 3.61, 2.46, 2.33, 2.54, 2.4, 1.18, 1.18, 2.26, 3.68, 5.03, 4.95, 5.89, 5.94, 4.88, 2.33, 1.2, 0.0, 0.0, 0.0, -0.84, -0.84, -1.55, -0.79, 0.0, 0.0, 1.63, 3.14, 3.9, 2.4, 0.0, -2.37, -5.63, -6.52, -6.21, -4.87, -4.01, -3.25, -3.2, -4.24, -4.92, -4.47, -4.47, -4.92, -5.36, -5.36, -3.58, 0.0, 2.97, 4.02, 3.97, 4.15, 3.83, 3.83, -9.02, -9.02, -9.02, -9.37, -9.08, -9.08, -9.13, -9.13, -9.13, -9.13, -9.17, -9.17, -9.19, -9.19, -9.21, -8.87, -8.59, -8.59, -9.5, -10.13, -9.47, -7.55, -6.96, -6.94, -7.53, -6.36, -4.7, -2.85, -1.69, -0.57, 0.0, 0.0, 0.0, 0.54, 0.55, 0.0, 0.0, -0.57, -1.1, -1.09, -0.54, 0.0, 0.56, 1.11, 2.19, 2.73, 2.28, 1.2, 0.0, 0.0, 0.0, 1.18, 2.49, 4.02, 5.06, 6.28, 6.39, 6.95, 5.72, 2.21, 0.0, 0.0, -0.85, -1.67, -1.67, -1.75, -1.55, 0.0, 1.52, 3.4, 3.35, 5.43, 5.55, 3.04, -4.01, -6.21, -7.85, -9.37, -9.43, -8.44, -6.87, -5.09, -4.26, -5.29, -5.29, -4.92, -4.92, -5.36, -4.92, -4.41, -0.0, 3.22, 3.32, 3.58, 3.58, 3.74, 3.58, 3.58, -9.02, -9.02, -9.02, -9.02, -9.08, -9.08, -9.08, -9.13, -9.13, -9.13, -8.56, -8.87, -8.58, -8.87, -8.87, -8.87, -8.87, -8.86, -9.49, -9.47, -8.37, -6.43, -5.17, -5.2, -5.83, -5.28, -4.74, -3.61, -2.83, -1.72, -1.12, -0.55, 0.0, 0.0, 0.0, 0.0, 0.0, 0.0, -0.54, -0.54, -0.58, 0.0, 0.0, 0.57, 1.16, 2.26, 1.16, 0.0, 0.0, 0.0, 0.0, 1.32, 3.76, 5.36, 5.36, 6.13, 5.82, 6.39, 6.01, 3.4, 0.83, -0.79, -2.31, -2.44, -2.54, -1.55, 0.0, 2.76, 5.82, 6.18, 4.29, 2.66, 0.8, 0.0, -2.49, -5.06, -7.61, -9.2, -10.82, -10.47, -9.17, -7.36, -5.89, -5.09, -6.02, -6.21, -5.81, -4.02, -2.24, -0.0, 2.15, 3.49, 3.6, 3.04, 3.13, 3.04, 2.53, 2.53, -8.78, -8.78, -8.78, -8.78, -8.82, -8.82, -8.82, -8.85, -8.85, -8.85, -8.85, -8.87, -8.87, -8.87, -8.59, -8.59, -8.87, -8.86, -8.83, -8.81, -7.48, -6.6, -5.73, -5.28, -5.11, -4.62, -4.62, -4.07, -3.39, -2.94, -1.73, -1.13, -1.16, -0.56, -0.57, 0.0, 0.0, 0.0, 0.0, -0.56, -0.56, -0.57, 0.0, 0.0, 0.55, 0.56, 0.0, 0.0, 0.0, 0.0, 1.18, 2.49, 4.02, 4.74, 5.01, 5.01, 4.19, 4.11, 4.75, 4.71, 1.63, 0.0, -1.63, -1.73, -1.72, 0.0, 5.21, 8.22, 7.42, 6.18, 2.6, -3.45, -1.6, 0.0, 0.0, -1.14, -4.43, -7.76, -10.04, -10.79, -10.45, -8.53, -6.51, -5.06, -5.36, -5.29, -3.13, 1.34, 3.47, 3.58, 2.68, 3.84, 3.22, 2.6, 2.0, 1.79, 1.9, 1.9, -8.78, -8.78, -8.78, -8.78, -8.78, -8.78, -8.82, -8.53, -8.53, -8.85, -8.85, -8.56, -8.87, -8.58, -8.87, -8.23, -8.59, -8.58, -8.85, -8.18, -7.5, -7.06, -6.6, -5.88, -5.42, -4.58, -4.1, -4.1, -3.41, -2.87, -2.32, -1.77, -1.72, -1.17, -1.12, -0.57, -0.57, -0.57, -0.57, -0.58, -0.59, -0.56, 0.0, 0.0, 0.0, 0.0, -0.57, 0.0, 0.0, 0.58, 1.61, 2.33, 2.66, 3.76, 4.43, 4.11, 4.11, 2.0, 1.3, 2.49, 2.54, 0.83, 0.0, 0.0, 0.81, 5.75, 8.63, 8.82, 7.82, 2.29, -0.79, -3.36, -1.13, 0.78, 1.57, 1.6, 0.69, -1.72, -5.93, -9.2, -10.65, -9.82, -8.53, -5.18, -1.73, 0.0, 3.16, 5.21, 5.82, 5.09, 3.58, 2.84, 2.86, 1.9, 1.26, 0.89, 1.26, 1.26, -8.78, -8.78, -8.78, -8.78, -8.78, -8.78, -8.5, -8.82, -8.53, -8.53, -8.85, -8.56, -8.87, -8.58, -8.24, -8.23, -8.22, -8.49, -8.2, -7.93, -7.76, -7.5, -7.06, -6.36, -5.88, -5.21, -4.74, -4.07, -3.41, -2.87, -2.24, -1.71, -1.72, -1.17, -1.12, -1.18, -1.12, -0.56, -0.56, -0.57, -0.58, -0.59, 0.0, 0.0, 0.0, 0.0, 0.0, 0.0, 0.0, 0.0, 0.56, 0.58, 1.2, 2.49, 2.8, 3.76, 2.6, 1.3, 1.3, 1.41, 2.4, 2.33, 1.65, 1.63, 4.11, 8.33, 9.06, 8.3, 5.06, 2.64, 0.0, -2.39, -2.41, -0.81, 0.79, 2.33, 2.13, 0.0, -2.4, -6.82, -8.63, -7.95, -6.28, -2.75, 0.71, 4.03, 5.77, 5.77, 5.06, 4.36, 3.22, 2.54, 2.21, 1.58, 1.26, -0.0, 0.0, 0.0, -8.78, -8.78, -8.78, -8.78, -8.78, -8.78, -8.5, -8.5, -8.53, -8.53, -8.85, -8.56, -8.56, -8.87, -8.24, -8.23, -8.22, -8.22, -7.95, -7.8, -7.53, -7.53, -7.06, -6.6, -6.4, -5.7, -5.21, -4.03, -3.5, -3.53, -2.87, -2.87, -2.26, -1.72, -1.74, -1.17, -1.12, -1.17, -1.17, -0.56, -0.56, -0.57, -0.58, 0.0, 0.0, 0.0, 0.0, 0.0, 0.0, 0.0, 0.0, 0.0, 0.0, 0.58, 0.82, 1.84, 1.23, 1.14, 0.81, 0.88, 1.18, 1.58, 1.11, 1.72, 6.8, 7.89, 8.14, 5.06, 3.33, 0.89, 0.0, -2.35, -3.16, -2.44, 0.0, 0.8, 0.78, 0.0, -1.6, -3.84, -3.13, -1.79, 0.0, 1.58, 3.74, 4.8, 4.84, 4.81, 4.01, 3.22, 2.11, 2.21, 1.9, 2.0, 0.95, -0.0, 0.0, 0.0, -8.45, -8.45, -8.45, -8.45, -8.45, -8.78, -8.5, -8.5, -8.5, -8.53, -8.24, -8.24, -8.24, -8.24, -8.24, -8.23, -8.23, -8.22, -7.83, -7.55, -7.55, -7.1, -7.1, -6.85, -6.4, -5.92, -5.42, -5.25, -4.74, -4.07, -3.53, -2.87, -2.9, -2.26, -2.28, -1.72, -1.66, -1.11, -1.11, -1.11, -1.12, -1.14, -0.58, 0.0, 0.0, 0.0, 0.0, 0.0, 0.0, -0.59, -0.56, -0.57, -0.59, 0.0, 0.0, 0.0, 0.0, 0.0, 0.81, 1.7, 0.0, 0.0, 0.0, 2.51, 7.35, 8.79, 6.39, 4.03, 0.83, 0.0, 0.0, -1.54, -2.31, -3.16, -3.16, -3.07, -3.19, -2.31, -2.64, -1.34, 1.66, 1.98, 2.23, 3.83, 4.02, 4.47, 4.24, 3.84, 3.35, 2.4, 1.7, 2.68, 2.0, 1.58, 0.95, -0.0, -0.89, -0.89, -8.45, -8.45, -8.45, -8.45, -8.45, -8.45, -8.19, -8.22, -8.22, -8.22, -8.24, -7.95, -8.24, -8.24, -8.24, -7.96, -8.23, -7.96, -7.57, -7.55, -7.55, -6.88, -7.1, -6.88, -6.43, -6.22, -5.77, -5.28, -4.77, -4.07, -3.41, -3.41, -2.9, -2.8, -2.93, -2.28, -2.28, -1.72, -1.72, -1.11, -1.17, -1.18, -1.15, -0.79, 0.0, 0.0, 0.0, -1.69, -2.25, -1.15, -1.11, -1.12, -1.09, -1.12, -1.16, -1.19, -1.32, 0.0, 0.88, 0.88, 0.0, -0.8, 0.0, 4.29, 7.35, 7.42, 7.06, 4.56, 0.89, -0.83, -1.75, -1.62, -2.34, -3.91, -5.4, -6.43, -6.21, -5.38, -4.57, -1.2, 2.53, 2.58, 2.6, 3.09, 4.24, 4.02, 3.58, 2.98, 2.0, 1.55, 1.7, 2.4, 2.15, 1.26, -0.0, 0.0, -0.89, -0.89, -8.45, -8.45, -8.19, -8.19, -8.19, -8.19, -8.19, -7.9, -8.22, -8.22, -7.93, -7.95, -8.24, -8.24, -8.24, -7.96, -8.23, -7.96, -7.57, -7.57, -7.55, -7.13, -7.13, -6.46, -6.46, -6.46, -6.0, -5.32, -4.62, -4.62, -4.1, -3.56, -3.44, -2.8, -2.93, -2.82, -2.28, -2.28, -2.28, -1.66, -1.74, -1.67, -1.69, -1.73, -1.14, 0.0, 0.0, -1.75, -2.23, -2.75, -2.26, -2.26, -2.23, -1.76, -2.36, -2.18, -2.18, -1.16, 0.0, 0.0, 0.0, -0.79, 1.52, 5.15, 5.82, 5.82, 5.82, 5.93, 1.7, -1.72, -4.26, -3.32, -1.63, -1.6, -3.87, -6.2, -6.4, -5.51, -4.11, -1.9, 0.79, 1.11, 1.73, 2.6, 3.09, 4.66, 3.58, 2.54, 1.4, 1.66, 1.55, 1.84, 1.47, 1.34, -0.0, 0.0, -1.34, -1.34, -8.19, -8.19, -8.19, -8.19, -8.19, -8.19, -8.19, -7.9, -7.9, -8.22, -7.93, -7.93, -7.95, -8.24, -7.96, -8.24, -7.96, -7.85, -7.57, -7.57, -7.31, -6.9, -6.9, -6.46, -6.46, -6.25, -5.8, -5.14, -4.65, -4.46, -4.1, -4.1, -3.44, -3.44, -2.93, -2.82, -2.39, -2.3, -2.3, -2.3, -1.74, -1.67, -1.69, -1.73, -2.19, -3.16, -2.44, -1.67, -1.12, -1.07, -1.19, -1.73, -1.73, -2.32, -2.82, -2.82, -2.82, -2.36, -1.07, 0.0, 0.0, 0.0, 3.33, 4.74, 4.01, 3.63, 2.68, 3.16, 1.19, -1.23, -3.33, -3.2, -0.85, 0.0, -0.79, -3.83, -5.62, -5.55, -3.91, -2.4, -1.0, -0.0, 0.53, 2.21, 2.98, 3.44, 3.13, 3.04, 1.74, 1.6, 0.79, 0.7, 0.72, 0.0, 0.0, -0.89, -1.79, -1.79, -8.19, -8.19, -8.19, -8.19, -8.19, -8.19, -8.19, -7.9, -7.9, -7.9, -7.93, -7.93, -8.24, -7.95, -7.96, -7.87, -7.59, -7.59, -7.59, -7.32, -7.16, -7.16, -6.9, -6.25, -6.25, -5.8, -5.83, -5.17, -5.67, -4.68, -4.65, -4.65, -4.13, -3.47, -3.47, -2.82, -2.82, -2.39, -2.39, -2.3, -2.3, -2.21, -2.33, -2.35, -2.77, -3.39, -2.84, -1.12, -0.56, 0.0, 0.0, -0.59, -0.55, -1.11, -1.76, -2.84, -3.49, -3.49, -2.4, -1.73, 0.0, 0.82, 3.47, 2.88, 2.47, 1.6, 0.0, 0.0, 0.0, 0.0, 0.0, 0.0, 0.0, 1.14, 0.79, -1.51, -3.91, -4.65, -4.81, -2.81, -0.71, 0.0, 1.44, 2.2, 2.84, 3.87, 3.54, 2.97, 1.74, 0.76, 0.0, 0.0, 0.0, 0.0, 0.0, -1.34, -2.0, -2.0, -7.86, -7.86, -7.86, -7.86, -7.86, -8.19, -8.19, -7.9, -7.9, -7.9, -7.93, -7.61, -7.61, -7.61, -7.6, -7.6, -7.59, -7.33, -7.59, -6.92, -6.92, -6.92, -6.5, -6.5, -6.5, -5.83, -5.83, -5.62, -5.17, -5.38, -4.72, -4.72, -4.02, -4.02, -3.5, -3.5, -2.96, -2.82, -2.82, -2.39, -2.3, -2.3, -2.33, -2.23, -2.23, -2.87, -2.84, -1.72, -1.17, -0.57, -0.59, -0.54, -0.59, -0.58, -1.19, -2.22, -3.2, -3.49, -3.49, -2.22, 0.0, 1.7, 2.49, 1.7, 1.6, 0.82, 0.0, -0.82, -1.23, 0.0, 1.73, 3.4, 1.65, 0.0, -0.79, -1.57, -1.53, -1.63, -1.39, -0.72, 0.0, 1.38, 2.12, 3.64, 2.67, 2.77, 2.91, 2.79, 1.8, 0.0, 0.0, 0.0, -0.7, -0.72, -0.7, -2.0, -2.12, -2.12, -7.86, -7.86, -7.86, -7.86, -7.86, -7.86, -8.19, -7.6, -7.6, -7.6, -7.6, -7.61, -7.61, -7.61, -7.61, -7.6, -7.6, -6.94, -6.94, -6.94, -6.92, -6.92, -6.5, -6.5, -6.5, -5.83, -5.83, -5.83, -5.83, -5.14, -4.51, -4.05, -4.08, -3.89, -3.39, -3.39, -3.37, -2.84, -2.96, -2.96, -2.84, -2.3, -2.21, -2.33, -2.33, -2.33, -2.3, -2.28, -1.74, -1.67, -1.69, -1.15, -1.11, -1.14, -1.63, -2.16, -2.84, -3.49, -3.49, -2.22, 0.0, 1.41, 1.41, 1.52, 0.88, 0.88, 0.0, 0.0, 0.0, 0.0, 1.73, 2.54, 1.2, -1.56, -3.1, -1.6, 0.0, 1.55, 2.14, 1.41, 1.36, 1.38, 2.12, 2.16, 2.09, 1.58, 1.53, 1.58, 0.88, 0.0, 0.0, -0.79, -1.55, -1.41, -1.47, -1.49, -2.12, -2.12, -7.86, -7.86, -7.59, -7.59, -7.59, -7.59, -7.3, -7.6, -7.6, -7.6, -7.6, -7.32, -7.61, -7.61, -7.33, -7.33, -6.96, -6.96, -6.94, -6.94, -6.94, -6.27, -6.27, -6.27, -5.83, -5.83, -5.83, -5.83, -5.83, -5.14, -4.68, -4.02, -3.53, -3.39, -3.39, -3.42, -3.39, -3.39, -2.99, -2.84, -2.84, -2.84, -2.33, -2.33, -2.21, -2.3, -2.3, -2.39, -2.3, -2.3, -2.33, -2.23, -2.25, -2.28, -2.33, -2.23, -2.96, -2.77, -2.8, -1.07, 0.0, 1.41, 1.41, 1.41, 1.23, 1.23, 0.88, 0.82, 0.89, 0.78, 0.78, 1.18, 0.0, 0.0, -1.53, 0.0, 2.37, 3.87, 4.07, 2.3, 0.71, 0.0, 0.0, 0.0, 0.69, 0.51, 0.56, 0.0, 0.0, -0.76, -0.85, -1.4, -1.7, -2.29, -1.47, -0.76, -2.0, -2.0, -7.59, -7.59, -7.59, -7.59, -7.59, -7.59, -7.3, -7.3, -7.6, -7.6, -7.6, -7.32, -7.32, -7.32, -7.61, -6.97, -6.96, -6.96, -6.96, -6.94, -6.53, -6.53, -6.27, -6.27, -5.83, -5.83, -5.83, -5.83, -5.36, -5.36, -4.68, -4.68, -4.02, -3.86, -3.53, -3.39, -3.42, -3.42, -2.87, -2.87, -2.87, -2.87, -2.33, -2.33, -2.21, -2.3, -2.28, -2.82, -2.96, -2.84, -2.87, -2.9, -2.77, -2.93, -2.97, -2.83, -2.86, -2.89, -2.4, -1.14, -0.55, 0.0, 0.0, 0.81, 0.82, 1.32, 1.6, 0.78, 0.0, 0.0, 0.0, 0.0, 1.11, 1.54, 0.79, 0.0, 0.77, 2.35, 1.59, 0.72, 0.0, 0.0, -0.71, -0.7, -0.71, -0.68, -0.75, -0.76, -1.55, -2.41, -2.41, -2.79, -3.35, -2.4, -1.66, -0.76, -0.8, -0.8, -7.59, -7.59, -7.59, -7.59, -7.59, -7.59, -7.59, -7.3, -7.3, -7.6, -7.6, -7.32, -7.32, -7.32, -6.98, -6.97, -6.97, -6.96, -6.96, -6.29, -6.29, -6.29, -6.53, -6.08, -5.62, -5.62, -5.62, -5.83, -5.17, -5.17, -5.17, -4.68, -4.68, -4.02, -4.02, -3.37, -3.53, -3.39, -2.87, -2.75, -2.75, -2.9, -2.25, -2.34, -1.69, -2.3, -2.82, -3.47, -3.34, -3.37, -3.39, -3.42, -2.77, -2.93, -2.8, -2.83, -2.83, -2.86, -1.73, -1.65, -1.07, -0.57, 0.0, 0.0, 0.82, 1.18, 0.82, 0.0, 0.0, 0.0, 0.0, 0.0, 1.25, 2.19, 1.51, 0.0, -0.75, -1.55, -1.53, -1.42, -0.73, -0.69, -0.7, -0.68, -1.5, -1.43, -2.17, -2.2, -2.98, -3.16, -3.84, -3.79, -3.79, -3.48, -1.98, -0.71, 0.0, 0.0, -7.59, -7.59, -7.59, -7.59, -7.59, -7.59, -7.59, -7.3, -7.3, -7.3, -7.6, -7.6, -7.32, -6.98, -6.98, -6.71, -6.97, -6.7, -6.96, -6.56, -6.29, -6.29, -6.29, -5.86, -5.86, -5.62, -5.62, -5.62, -5.17, -5.17, -5.17, -4.98, -4.51, -4.51, -4.51, -4.02, -3.5, -3.37, -3.39, -2.87, -2.9, -2.9, -2.8, -2.41, -1.79, -2.28, -3.47, -4.13, -3.99, -4.02, -4.05, -3.42, -3.42, -3.45, -3.49, -3.32, -2.83, -2.86, -2.4, -1.76, -1.7, -1.08, 0.0, 0.0, 0.0, 0.0, 0.0, 0.0, 0.0, 0.0, 0.0, 0.0, 0.0, 0.82, 1.57, 0.79, 0.0, -2.37, -3.59, -2.95, -2.09, -1.38, -0.68, -1.42, -1.39, -2.28, -2.9, -2.8, -3.79, -4.19, -4.19, -4.11, -3.07, -2.84, -1.9, -1.58, -0.71, 0.0, -7.27, -7.27, -7.27, -7.59, -7.59, -7.59, -7.59, -7.3, -7.3, -7.3, -7.3, -7.3, -7.27, -6.98, -6.98, -6.98, -6.71, -6.97, -6.7, -6.31, -6.56, -6.29, -6.29, -5.86, -5.86, -5.86, -5.62, -5.62, -5.17, -5.17, -5.2, -5.2, -4.72, -4.51, -4.51, -4.51, -4.02, -4.02, -3.37, -3.53, -3.39, -2.9, -3.45, -3.49, -3.19, -2.93, -4.1, -5.17, -4.72, -4.54, -3.89, -4.08, -3.91, -3.94, -3.49, -3.49, -3.52, -2.89, -2.92, -2.29, -2.16, -1.73, -0.63, 0.0, 0.0, 0.0, 0.0, 0.0, 0.0, 0.0, 0.0, 0.0, 0.0, 0.0, 1.18, 3.11, 2.37, 0.0, -2.37, -3.53, -3.47, -2.72, -2.18, -2.14, -2.1, -2.11, -3.06, -3.79, -4.46, -4.84, -4.84, -4.11, -3.07, -2.53, -2.54, -2.68, -1.58, -0.71, -7.27, -7.27, -7.27, -7.27, -7.59, -7.59, -7.59, -7.59, -7.3, -7.3, -7.3, -7.3, -6.98, -6.98, -6.98, -6.98, -6.98, -6.71, -6.97, -6.31, -6.31, -6.31, -6.31, -6.29, -5.86, -5.86, -5.86, -5.86, -5.86, -5.2, -5.2, -5.2, -5.2, -4.72, -4.72, -4.72, -4.72, -4.02, -4.02, -4.05, -3.53, -3.57, -3.42, -3.94, -4.57, -4.87, -4.48, -4.57, -3.94, -4.12, -4.6, -4.6, -4.12, -3.94, -4.16, -3.97, -3.52, -2.89, -2.92, -2.96, -2.32, -2.18, -1.32, -1.23, 0.0, 0.0, 0.0, 0.0, 0.0, 0.0, 0.83, 0.0, -1.18, -2.4, -1.14, 1.22, 1.63, 0.0, -2.39, -3.95, -4.23, -4.32, -4.24, -3.6, -3.53, -2.89, -2.83, -3.69, -4.43, -5.43, -4.84, -3.72, -2.4, -2.41, -2.97, -2.68, -2.54, -2.54, -7.55, -7.55, -7.27, -7.27, -7.27, -7.27, -7.59, -7.59, -7.59, -7.3, -7.3, -6.98, -6.98, -6.98, -6.98, -6.98, -6.98, -6.98, -6.71, -6.97, -6.31, -6.31, -6.31, -6.31, -5.64, -5.86, -5.86, -5.86, -5.86, -5.2, -5.2, -5.2, -5.2, -5.2, -4.72, -4.72, -4.54, -4.54, -4.54, -4.05, -4.05, -3.89, -4.08, -4.57, -5.17, -5.32, -3.99, -2.9, -3.3, -3.49, -4.16, -4.16, -4.63, -4.63, -4.42, -3.97, -3.52, -3.56, -2.89, -2.75, -2.77, -2.32, -1.88, -1.32, 0.0, 0.0, 0.0, 0.0, 0.82, 0.78, 0.83, 0.0, -2.4, -3.4, -3.8, -3.8, -1.6, -0.82, -1.52, -2.4, -3.6, -4.5, -4.96, -4.87, -4.4, -4.5, -4.0, -3.91, -4.36, -5.43, -4.84, -3.72, -3.22, -2.3, -3.13, -3.13, -3.13, -3.13, -7.55, -7.55, -7.55, -7.27, -7.27, -7.27, -7.27, -7.27, -7.59, -7.59, -7.3, -6.98, -6.98, -6.98, -6.98, -6.98, -6.98, -6.98, -6.71, -6.97, -6.58, -6.58, -6.31, -6.31, -6.31, -5.64, -5.86, -5.86, -5.64, -5.64, -5.2, -5.2, -5.2, -5.2, -5.2, -4.54, -4.54, -4.54, -4.54, -4.54, -4.54, -4.05, -4.54, -4.54, -4.68, -4.65, -3.47, -2.84, -2.87, -2.9, -3.27, -3.45, -3.97, -4.2, -4.0, -4.0, -4.03, -3.56, -3.37, -3.4, -2.96, -3.0, -2.36, -1.4, 0.0, 0.0, 1.32, 1.32, 1.6, 1.72, 0.83, -0.83, -2.51, -4.12, -4.83, -4.83, -3.21, -0.79, 0.0, 0.0, 0.0, -0.73, -1.52, -2.23, -2.9, -3.6, -3.91, -4.56, -4.74, -4.46, -4.46, -3.72, -3.47, -3.2, -3.58, -3.58, -3.58, -3.58, -7.55, -7.55, -7.55, -7.55, -7.27, -7.27, -7.27, -7.27, -7.27, -7.27, -7.28, -6.98, -6.98, -6.98, -6.98, -6.7, -6.98, -6.98, -6.98, -6.71, -6.71, -6.33, -6.58, -6.31, -6.31, -6.31, -5.64, -5.64, -5.64, -5.64, -5.64, -5.2, -5.2, -5.2, -5.0, -5.0, -4.76, -4.54, -4.54, -4.54, -4.54, -4.54, -4.54, -4.72, -4.51, -4.68, -3.99, -3.47, -3.34, -3.5, -3.53, -3.42, -3.45, -3.49, -4.0, -4.03, -4.03, -3.81, -3.37, -3.4, -2.75, -2.77, -2.8, -2.36, -1.18, 0.0, 1.32, 1.72, 2.47, 1.72, 0.0, -0.89, -2.51, -3.45, -4.0, -3.21, -1.62, 0.0, 0.0, 1.55, 3.04, 3.66, 2.81, 1.41, 0.0, -0.73, -1.47, -2.26, -3.22, -3.79, -4.74, -3.07, -3.22, -3.6, -4.02, -4.02, -4.02, -4.02, -7.55, -7.55, -7.55, -7.55, -7.55, -7.27, -7.27, -7.27, -7.27, -7.27, -6.97, -7.28, -6.98, -6.98, -6.98, -6.98, -6.98, -6.98, -6.98, -6.98, -6.71, -6.71, -6.33, -6.58, -6.31, -6.31, -6.31, -5.89, -5.89, -5.89, -5.89, -5.64, -5.2, -5.2, -5.0, -5.23, -5.23, -5.23, -4.76, -4.76, -4.54, -4.54, -4.54, -4.72, -4.51, -4.51, -4.68, -4.17, -3.99, -4.17, -4.02, -3.37, -3.39, -3.42, -3.45, -4.0, -4.03, -3.81, -3.6, -3.4, -3.2, -2.77, -2.8, -2.36, -1.16, 0.0, 0.0, 0.0, 0.0, 0.0, -0.89, -1.63, -1.63, -2.4, -2.31, -1.67, -0.82, 0.0, 0.0, 2.31, 4.0, 4.81, 3.9, 2.93, 2.15, 0.69, 0.0, 0.0, -0.77, -2.49, -4.74, -4.01, -4.01, -4.22, -4.47, -4.41, -4.41, -4.41, -7.55, -7.55, -7.55, -7.55, -7.55, -7.55, -7.27, -7.27, -6.97, -6.97, -6.97, -6.97, -6.98, -6.98, -6.98, -6.98, -6.98, -6.98, -6.98, -6.98, -6.98, -6.98, -6.33, -6.33, -6.58, -6.31, -6.31, -5.89, -5.89, -5.89, -5.89, -5.89, -5.89, -5.2, -5.23, -5.23, -5.23, -5.23, -5.23, -5.23, -5.23, -5.0, -5.2, -5.2, -5.2, -4.51, -4.68, -4.68, -4.68, -4.68, -4.02, -4.02, -3.86, -4.05, -3.45, -3.49, -3.52, -3.56, -3.37, -3.4, -3.4, -2.77, -2.8, -2.36, -1.73, -1.32, 0.0, 0.0, -1.18, -0.83, -1.63, -1.63, -1.63, -1.65, -0.89, -0.85, -0.78, -0.76, 0.0, 1.58, 3.11, 3.95, 4.01, 3.57, 2.8, 1.4, 0.0, 0.0, 0.0, -2.26, -4.01, -4.74, -4.81, -4.8, -4.92, -4.85, -4.85, -4.85, -7.55, -7.55, -7.23, -7.23, -7.23, -7.23, -7.55, -6.97, -6.97, -6.97, -6.97, -6.97, -6.97, -6.98, -6.98, -6.98, -6.98, -6.98, -6.98, -6.98, -6.98, -6.98, -6.98, -6.33, -6.33, -6.58, -6.31, -6.31, -5.89, -5.89, -5.67, -5.89, -5.89, -5.89, -5.67, -5.23, -5.23, -5.23, -5.23, -5.23, -5.23, -5.0, -5.2, -5.2, -5.2, -5.2, -5.17, -4.68, -4.68, -4.68, -4.51, -4.51, -4.72, -4.05, -4.08, -3.94, -3.49, -3.52, -3.35, -3.37, -2.92, -2.96, -2.8, -2.36, -1.73, -1.32, -1.32, -1.18, 0.0, 0.0, 0.0, -0.83, -0.79, -0.84, -0.8, -0.85, -0.81, 0.0, 0.82, 1.56, 1.58, 2.39, 3.13, 4.3, 3.57, 2.15, 0.0, -0.71, -1.41, -2.15, -3.27, -4.74, -5.15, -5.2, -5.36, -5.36, -5.36, -5.36, -7.23, -7.23, -7.23, -7.23, -7.23, -7.23, -6.95, -6.95, -6.97, -6.97, -6.97, -6.97, -6.97, -7.28, -6.98, -6.98, -6.98, -6.98, -6.98, -6.7, -6.7, -6.7, -6.98, -6.98, -6.33, -6.33, -6.33, -6.31, -6.31, -5.67, -5.67, -5.67, -5.89, -5.89, -5.67, -5.67, -5.67, -5.67, -5.23, -5.23, -5.23, -5.23, -5.44, -5.2, -5.2, -5.2, -5.4, -5.17, -5.17, -5.17, -4.51, -4.72, -4.72, -4.54, -4.57, -4.12, -3.94, -3.97, -3.32, -3.35, -2.89, -2.92, -2.77, -2.6, -2.4, -1.72, -0.89, 0.0, 0.0, 0.0, 0.0, -0.8, -0.84, -0.84, -0.84, -0.8, 0.0, 0.0, 0.81, 0.78, 0.79, 0.8, 2.31, 3.1, 2.84, 1.4, -1.42, -2.82, -2.76, -2.88, -3.61, -4.95, -5.82, -5.75, -5.75, -5.81, -5.81, -5.81, -7.51, -7.51, -7.51, -7.23, -7.23, -7.23, -6.95, -6.95, -6.95, -6.97, -6.97, -6.97, -6.97, -6.97, -6.98, -6.98, -6.98, -6.98, -6.98, -6.98, -6.98, -6.7, -6.7, -6.98, -6.61, -6.33, -6.33, -6.33, -6.33, -6.33, -5.67, -5.67, -5.67, -5.67, -5.67, -5.67, -5.67, -5.67, -5.67, -5.67, -5.67, -5.67, -5.89, -5.67, -5.89, -5.64, -5.64, -5.86, -5.17, -5.17, -5.4, -5.2, -5.2, -4.76, -4.57, -4.6, -4.6, -4.16, -3.97, -3.52, -3.35, -2.89, -2.75, -3.0, -2.82, -2.64, -1.72, -0.89, 0.0, 0.0, -0.84, -0.84, -2.54, -1.75, -0.84, -0.84, 0.0, 0.0, 0.0, 0.0, 0.0, 0.0, 0.76, 1.55, 0.78, -0.69, -1.45, -2.83, -4.2, -4.31, -4.31, -5.21, -5.72, -6.28, -6.02, -6.26, -6.26, -6.26, -7.51, -7.51, -7.51, -7.23, -7.23, -7.23, -6.95, -6.95, -6.95, -7.27, -6.97, -6.97, -6.97, -6.97, -6.97, -6.98, -6.98, -6.98, -6.98, -6.98, -6.98, -6.98, -6.7, -6.7, -6.7, -6.61, -6.33, -6.33, -6.33, -6.33, -6.33, -6.33, -5.67, -5.67, -5.67, -5.67, -5.67, -5.67, -5.67, -5.67, -5.67, -5.89, -5.89, -5.67, -5.67, -5.89, -5.64, -5.64, -5.64, -5.64, -5.2, -5.2, -5.2, -5.23, -5.02, -4.8, -4.6, -4.63, -3.97, -4.0, -3.52, -3.56, -3.4, -2.96, -2.8, -2.2, -2.47, -1.6, -1.72, -0.89, -0.89, -0.83, -2.67, -4.03, -2.4, -1.65, -0.84, 0.0, 0.0, 0.0, 0.0, 0.0, 0.0, 0.0, -0.7, -1.4, -2.19, -2.83, -4.37, -5.04, -5.18, -5.86, -6.08, -6.7, -6.51, -6.65, -6.65, -6.65, -7.51, -7.51, -7.51, -7.51, -7.23, -7.23, -7.23, -6.95, -6.95, -6.95, -6.97, -6.97, -6.97, -6.97, -6.97, -6.97, -6.69, -6.69, -6.98, -6.98, -6.98, -6.98, -6.98, -6.7, -6.7, -6.34, -6.61, -6.33, -6.33, -6.33, -6.33, -6.33, -6.33, -6.07, -5.67, -5.67, -5.67, -5.67, -5.67, -5.67, -5.67, -5.67, -5.67, -5.67, -5.67, -5.89, -5.89, -5.64, -5.64, -5.64, -5.64, -5.64, -5.2, -5.23, -5.02, -5.26, -5.04, -4.63, -4.42, -4.2, -4.0, -3.56, -3.37, -3.4, -2.8, -2.44, -3.33, -2.64, -2.47, -0.82, -0.82, -1.72, -1.63, -3.33, -4.26, -3.4, -2.4, -1.65, -0.8, -0.85, -0.81, 0.0, 0.0, -0.79, -1.4, -1.38, -2.18, -3.02, -4.37, -4.87, -5.04, -5.04, -5.69, -5.46, -5.75, -6.51, -6.51, -6.51, -7.51, -7.51, -7.51, -7.51, -7.51, -7.23, -7.23, -6.95, -6.95, -6.95, -6.95, -6.97, -6.97, -6.97, -6.97, -6.97, -6.97, -6.97, -6.69, -6.69, -6.69, -6.98, -6.98, -6.98, -6.7, -6.7, -6.34, -6.61, -6.33, -6.33, -6.33, -6.33, -6.33, -6.33, -6.33, -6.33, -5.92, -5.92, -5.92, -5.92, -5.67, -5.67, -5.67, -5.67, -5.67, -5.67, -5.89, -5.89, -5.89, -5.89, -5.67, -5.89, -5.23, -5.23, -5.02, -5.04, -5.29, -5.06, -4.66, -4.44, -4.0, -4.03, -3.37, -3.4, -3.45, -2.84, -2.22, -1.76, -1.84, -0.89, -1.63, -1.63, -0.83, 0.0, -0.82, -4.16, -3.2, -2.4, -2.54, -1.58, -1.58, -0.85, 0.0, 0.0, -0.71, -1.38, -2.81, -3.53, -4.2, -4.37, -5.13, -5.13, -4.71, -4.65, -5.15, -5.43, -5.43, -5.43, -7.51, -7.51, -7.51, -7.51, -7.51, -7.23, -7.23, -6.95, -6.95, -6.95, -6.95, -6.95, -6.67, -6.97, -6.97, -6.97, -6.97, -6.97, -6.97, -6.69, -6.69, -6.69, -6.98, -6.98, -6.98, -6.7, -6.7, -6.98, -6.61, -6.33, -6.33, -6.33, -6.33, -6.33, -6.33, -6.33, -6.33, -5.92, -5.92, -5.92, -5.92, -5.92, -5.92, -5.92, -5.92, -5.67, -5.67, -5.67, -5.67, -5.67, -5.67, -5.67, -5.23, -5.23, -5.26, -5.04, -5.29, -5.06, -4.66, -4.44, -4.69, -4.03, -4.03, -4.05, -3.42, -3.22, -2.86, -2.22, -2.64, -1.63, -1.73, -0.89, 0.0, 0.0, 0.89, 0.83, -1.63, -2.67, -2.54, -2.31, -2.54, -1.58, -0.75, 0.0, -0.79, -1.61, -3.19, -3.85, -4.4, -4.28, -4.37, -4.37, -4.12, -3.91, -4.03, -3.43, -3.43, -3.43, -7.51, -7.51, -7.51, -7.51, -7.51, -7.51, -7.23, -7.23, -6.95, -6.95, -6.95, -6.95, -6.95, -6.67, -6.97, -6.97, -6.97, -6.97, -6.97, -6.97, -6.69, -6.69, -6.98, -6.98, -6.98, -6.98, -6.7, -6.7, -6.98, -6.61, -6.33, -6.33, -6.33, -6.33, -6.33, -6.33, -6.33, -5.92, -5.92, -5.92, -5.92, -5.92, -5.92, -5.92, -5.69, -5.92, -5.92, -5.67, -5.67, -5.67, -5.67, -5.92, -5.02, -5.26, -5.26, -5.04, -5.29, -5.06, -5.08, -4.44, -4.69, -4.45, -4.03, -4.05, -4.08, -3.45, -3.22, -2.86, -2.61, -2.51, -1.73, -0.89, 0.0, 0.0, 0.79, 0.79, 0.0, -0.79, -1.65, -2.54, -2.54, -2.31, -2.47, -1.58, -1.65, -2.44, -3.69, -4.4, -5.04, -4.8, -4.6, -4.37, -4.37, -4.12, -4.26, -3.79, -3.79, -3.79, -7.51, -7.51, -7.51, -7.51, -7.51, -7.51, -7.51, -7.23, -6.95, -6.95, -6.95, -6.95, -6.95, -6.95, -6.67, -6.97, -6.97, -6.97, -6.97, -6.97, -6.97, -6.69, -6.98, -6.98, -6.98, -6.98, -6.98, -6.7, -6.7, -6.98, -6.98, -6.61, -6.33, -6.33, -6.33, -6.33, -6.33, -5.69, -5.69, -5.69, -5.69, -5.69, -5.69, -5.69, -5.69, -5.69, -5.69, -5.69, -5.67, -5.67, -5.69, -5.26, -5.26, -5.26, -5.04, -5.04, -5.06, -5.06, -5.08, -5.08, -4.69, -4.45, -4.71, -4.05, -3.83, -3.84, -3.47, -3.22, -3.49, -3.33, -2.35, -2.51, -1.63, 0.0, 0.0, 0.0, -0.83, -0.89, -1.65, -2.4, -2.4, -2.54, -2.35, -2.41, -2.37, -3.19, -4.4, -5.59, -5.94, -5.94, -5.13, -5.13, -4.87, -4.71, -4.26, -4.03, -4.03, -4.03, -7.8, -7.8, -7.51, -7.51, -7.51, -7.51, -7.51, -7.51, -7.23, -6.95, -6.95, -6.95, -6.95, -6.95, -6.95, -6.97, -6.97, -6.97, -6.97, -6.97, -6.97, -6.97, -6.98, -6.98, -6.98, -6.98, -6.98, -6.98, -6.7, -6.7, -6.98, -6.98, -6.61, -6.33, -6.33, -6.33, -6.08, -5.69, -5.69, -5.69, -5.69, -5.69, -5.69, -5.69, -5.69, -5.69, -5.69, -5.69, -5.26, -5.26, -5.26, -5.26, -5.26, -5.04, -5.04, -5.29, -5.06, -5.32, -5.08, -5.34, -5.09, -4.45, -4.71, -4.46, -4.46, -4.08, -3.85, -4.12, -4.12, -4.65, -4.16, -3.55, -2.47, -1.6, -0.82, -0.89, -0.83, -1.63, -2.51, -2.67, -2.4, -2.31, -2.35, -3.16, -3.23, -3.11, -3.95, -5.21, -6.7, -6.7, -6.68, -5.94, -5.59, -5.59, -4.83, -4.56, -4.56, -4.56, -7.8, -7.8, -7.8, -7.8, -7.51, -7.51, -7.51, -7.51, -7.51, -7.23, -7.23, -6.95, -6.95, -6.95, -6.95, -7.27, -6.97, -6.97, -6.97, -6.97, -6.97, -6.97, -7.28, -6.98, -6.98, -6.98, -6.98, -6.98, -6.98, -6.7, -6.7, -6.7, -6.34, -6.34, -6.34, -6.34, -6.34, -5.95, -5.95, -5.95, -5.95, -5.95, -5.7, -5.7, -5.7, -5.04, -5.04, -5.26, -5.26, -5.26, -5.26, -5.26, -5.04, -5.04, -5.04, -5.29, -5.06, -5.32, -5.08, -5.34, -5.09, -5.09, -4.71, -4.71, -4.46, -4.47, -4.47, -4.45, -4.74, -4.45, -3.85, -3.4, -2.64, -1.72, -0.89, -0.78, 0.0, 0.0, -0.89, -1.73, -1.65, -2.44, -2.47, -3.16, -3.23, -3.07, -3.11, -4.2, -5.21, -6.06, -6.7, -6.68, -6.32, -5.59, -5.69, -5.69, -5.69, -5.69, -8.0, -8.0, -7.8, -7.8, -7.8, -7.51, -7.51, -7.51, -7.51, -7.51, -7.23, -7.23, -7.23, -7.23, -6.95, -7.27, -7.27, -6.97, -6.97, -6.97, -6.97, -6.97, -6.97, -7.28, -6.98, -6.98, -6.98, -6.98, -6.98, -6.98, -6.98, -6.7, -6.34, -6.34, -6.34, -6.34, -6.34, -5.95, -5.95, -5.7, -5.7, -5.7, -5.7, -5.7, -5.29, -5.29, -5.29, -5.04, -5.04, -5.04, -5.26, -5.04, -5.04, -5.04, -5.04, -5.29, -5.06, -5.32, -5.08, -5.34, -5.09, -5.09, -5.1, -4.71, -4.46, -4.47, -4.75, -4.47, -4.45, -4.75, -4.47, -4.26, -2.51, -1.18, 0.0, 0.0, 0.0, 0.0, 0.0, -0.79, -1.65, -2.44, -2.47, -3.02, -2.45, -2.41, -2.39, -2.44, -2.89, -3.51, -4.46, -5.69, -6.68, -6.35, -6.35, -6.06, -6.06, -6.06, -7.64, -7.64, -7.64, -7.44, -7.8, -7.8, -7.51, -7.51, -7.51, -7.51, -7.51, -7.23, -7.23, -7.23, -7.23, -7.23, -7.27, -6.97, -6.97, -6.97, -6.97, -6.97, -6.97, -6.97, -7.28, -6.98, -6.98, -6.98, -6.98, -6.98, -6.98, -6.98, -6.7, -6.34, -6.34, -6.34, -6.34, -6.34, -5.7, -5.7, -5.7, -5.7, -5.7, -5.29, -5.29, -5.29, -5.29, -5.29, -5.04, -5.04, -5.04, -5.04, -5.04, -5.04, -5.29, -5.06, -5.06, -5.08, -5.08, -5.34, -5.09, -5.09, -5.1, -5.1, -4.46, -4.73, -4.75, -4.47, -4.75, -4.75, -4.75, -4.1, -2.8, -1.25, 0.0, 0.0, 0.0, 0.0, 0.0, -0.83, -1.73, -2.31, -2.57, -3.25, -3.11, -2.33, -1.57, -1.55, -2.34, -2.31, -2.39, -3.32, -4.94, -6.7, -6.35, -6.44, -6.44, -6.44, -7.64, -7.64, -7.64, -7.44, -7.8, -7.8, -7.51, -7.51, -7.51, -7.51, -7.51, -7.23, -7.23, -7.23, -7.23, -7.23, -7.27, -6.97, -6.97, -6.97, -6.97, -6.97, -6.97, -6.97, -7.28, -6.98, -6.98, -6.98, -6.98, -6.98, -6.98, -6.98, -6.7, -6.34, -6.34, -6.34, -6.34, -6.34, -5.7, -5.7, -5.7, -5.7, -5.7, -5.29, -5.29, -5.29, -5.29, -5.29, -5.04, -5.04, -5.04, -5.04, -5.04, -5.04, -5.29, -5.06, -5.06, -5.08, -5.08, -5.34, -5.09, -5.09, -5.1, -5.1, -4.46, -4.73, -4.75, -4.47, -4.75, -4.75, -4.75, -4.1, -2.8, -1.25, 0.0, 0.0, 0.0, 0.0, 0.0, -0.83, -1.73, -2.4, -2.44, -3.11, -3.19, -2.39, -1.51, -1.55, -1.54, -1.52, -1.52, -1.56, -3.32, -5.69, -6.44, -6.44, -6.44, -6.44]}]